Wetterdaten: Sonntag, 24.03.2013
Datum Zeit Temp. Aussen +5cm Feuchte Auss Luftdruck Regen Sonnenschein Regendauer UV Solar Windben
24.03.2013 00:00 -1,7 C -2,7 C 71 % 1015,1 hPa 0,0 l/m 0 min 0 min 0,0 UV-I 0 W/m 10,3 km/h (2 Bft)
24.03.2013 00:02 -1,7 C -2,7 C 71 % 1015,1 hPa 0,0 l/m 0 min 0 min 0,0 UV-I 0 W/m 10,3 km/h (2 Bft)
24.03.2013 00:04 -1,7 C -2,7 C 71 % 1015,1 hPa 0,0 l/m 0 min 0 min 0,0 UV-I 0 W/m 10,3 km/h (2 Bft)
24.03.2013 00:06 -1,7 C -2,7 C 71 % 1015,1 hPa 0,0 l/m 0 min 0 min 0,0 UV-I 0 W/m 7,7 km/h (2 Bft)
24.03.2013 00:08 -1,7 C -2,7 C 71 % 1015,1 hPa 0,0 l/m 0 min 0 min 0,0 UV-I 0 W/m 7,7 km/h (2 Bft)
24.03.2013 00:10 -1,7 C -2,7 C 71 % 1015,1 hPa 0,0 l/m 0 min 0 min 0,0 UV-I 0 W/m 10,3 km/h (2 Bft)
24.03.2013 00:12 -1,7 C -2,7 C 71 % 1015,1 hPa 0,0 l/m 0 min 0 min 0,0 UV-I 0 W/m 10,3 km/h (2 Bft)
24.03.2013 00:14 -1,7 C -2,7 C 70 % 1015,1 hPa 0,0 l/m 0 min 0 min 0,0 UV-I 0 W/m 15,4 km/h (3 Bft)
24.03.2013 00:16 -1,7 C -2,7 C 70 % 1015,0 hPa 0,0 l/m 0 min 0 min 0,0 UV-I 0 W/m 7,7 km/h (2 Bft)
24.03.2013 00:18 -1,8 C -2,7 C 71 % 1015,0 hPa 0,0 l/m 0 min 0 min 0,0 UV-I 0 W/m 7,7 km/h (2 Bft)
24.03.2013 00:20 -1,8 C -2,7 C 70 % 1015,0 hPa 0,0 l/m 0 min 0 min 0,0 UV-I 0 W/m 10,3 km/h (2 Bft)
24.03.2013 00:22 -1,8 C -2,7 C 70 % 1015,0 hPa 0,0 l/m 0 min 0 min 0,0 UV-I 0 W/m 10,3 km/h (2 Bft)
24.03.2013 00:24 -1,8 C -2,7 C 70 % 1015,0 hPa 0,0 l/m 0 min 0 min 0,0 UV-I 0 W/m 7,7 km/h (2 Bft)
24.03.2013 00:26 -1,8 C -2,7 C 71 % 1015,0 hPa 0,0 l/m 0 min 0 min 0,0 UV-I 0 W/m 5,1 km/h (1 Bft)
24.03.2013 00:28 -1,8 C -2,7 C 71 % 1015,1 hPa 0,0 l/m 0 min 0 min 0,0 UV-I 0 W/m 7,7 km/h (2 Bft)
24.03.2013 00:30 -1,8 C -2,7 C 70 % 1015,1 hPa 0,0 l/m 0 min 0 min 0,0 UV-I 0 W/m 5,1 km/h (1 Bft)
24.03.2013 00:32 -1,8 C -2,7 C 71 % 1015,2 hPa 0,0 l/m 0 min 0 min 0,0 UV-I 0 W/m 10,3 km/h (2 Bft)
24.03.2013 00:34 -1,8 C -2,7 C 71 % 1015,1 hPa 0,0 l/m 0 min 0 min 0,0 UV-I 0 W/m 5,1 km/h (1 Bft)
24.03.2013 00:36 -1,8 C -2,7 C 71 % 1015,1 hPa 0,0 l/m 0 min 0 min 0,0 UV-I 0 W/m 7,7 km/h (2 Bft)
24.03.2013 00:38 -1,8 C -2,7 C 71 % 1015,2 hPa 0,0 l/m 0 min 0 min 0,0 UV-I 0 W/m 7,7 km/h (2 Bft)
24.03.2013 00:40 -1,8 C -2,7 C 71 % 1015,2 hPa 0,0 l/m 0 min 0 min 0,0 UV-I 0 W/m 5,1 km/h (1 Bft)
24.03.2013 00:42 -1,8 C -2,7 C 71 % 1015,2 hPa 0,0 l/m 0 min 0 min 0,0 UV-I 0 W/m 2,6 km/h (1 Bft)
24.03.2013 00:44 -1,8 C -2,7 C 71 % 1015,2 hPa 0,0 l/m 0 min 0 min 0,0 UV-I 0 W/m 10,3 km/h (2 Bft)
24.03.2013 00:46 -1,8 C -2,7 C 70 % 1015,1 hPa 0,0 l/m 0 min 0 min 0,0 UV-I 0 W/m 15,4 km/h (3 Bft)
24.03.2013 00:48 -1,8 C -2,7 C 70 % 1015,1 hPa 0,0 l/m 0 min 0 min 0,0 UV-I 0 W/m 18,0 km/h (3 Bft)
24.03.2013 00:50 -1,8 C -2,7 C 70 % 1015,1 hPa 0,0 l/m 0 min 0 min 0,0 UV-I 0 W/m 10,3 km/h (2 Bft)
24.03.2013 00:52 -1,8 C -2,7 C 70 % 1015,0 hPa 0,0 l/m 0 min 0 min 0,0 UV-I 0 W/m 7,7 km/h (2 Bft)
24.03.2013 00:54 -1,8 C -2,7 C 70 % 1015,0 hPa 0,0 l/m 0 min 0 min 0,0 UV-I 0 W/m 10,3 km/h (2 Bft)
24.03.2013 00:56 -1,8 C -2,7 C 70 % 1015,1 hPa 0,0 l/m 0 min 0 min 0,0 UV-I 0 W/m 7,7 km/h (2 Bft)
24.03.2013 00:58 -1,8 C -2,7 C 70 % 1015,1 hPa 0,0 l/m 0 min 0 min 0,0 UV-I 0 W/m 5,1 km/h (1 Bft)
24.03.2013 01:00 -1,8 C -2,7 C 70 % 1015,1 hPa 0,0 l/m 0 min 0 min 0,0 UV-I 0 W/m 5,1 km/h (1 Bft)
24.03.2013 01:02 -1,8 C -2,7 C 70 % 1015,0 hPa 0,0 l/m 0 min 0 min 0,0 UV-I 0 W/m 10,3 km/h (2 Bft)
24.03.2013 01:04 -1,8 C -2,7 C 70 % 1015,0 hPa 0,0 l/m 0 min 0 min 0,0 UV-I 0 W/m 12,9 km/h (3 Bft)
24.03.2013 01:06 -1,8 C -2,7 C 69 % 1015,0 hPa 0,0 l/m 0 min 0 min 0,0 UV-I 0 W/m 10,3 km/h (2 Bft)
24.03.2013 01:08 -1,9 C -2,7 C 69 % 1014,9 hPa 0,0 l/m 0 min 0 min 0,0 UV-I 0 W/m 7,7 km/h (2 Bft)
24.03.2013 01:10 -1,8 C -2,7 C 69 % 1014,9 hPa 0,0 l/m 0 min 0 min 0,0 UV-I 0 W/m 12,9 km/h (3 Bft)
24.03.2013 01:12 -1,8 C -2,7 C 69 % 1014,8 hPa 0,0 l/m 0 min 0 min 0,0 UV-I 0 W/m 7,7 km/h (2 Bft)
24.03.2013 01:14 -1,9 C -2,7 C 69 % 1014,9 hPa 0,0 l/m 0 min 0 min 0,0 UV-I 0 W/m 12,9 km/h (3 Bft)
24.03.2013 01:16 -1,9 C -2,7 C 69 % 1014,9 hPa 0,0 l/m 0 min 0 min 0,0 UV-I 0 W/m 12,9 km/h (3 Bft)
24.03.2013 01:18 -1,9 C -2,7 C 69 % 1014,9 hPa 0,0 l/m 0 min 0 min 0,0 UV-I 0 W/m 5,1 km/h (1 Bft)
24.03.2013 01:20 -1,9 C -2,7 C 69 % 1014,9 hPa 0,0 l/m 0 min 0 min 0,0 UV-I 0 W/m 10,3 km/h (2 Bft)
24.03.2013 01:22 -1,9 C -2,7 C 69 % 1015,0 hPa 0,0 l/m 0 min 0 min 0,0 UV-I 0 W/m 7,7 km/h (2 Bft)
24.03.2013 01:24 -1,9 C -2,7 C 68 % 1015,0 hPa 0,0 l/m 0 min 0 min 0,0 UV-I 0 W/m 7,7 km/h (2 Bft)
24.03.2013 01:26 -1,9 C -2,7 C 68 % 1015,0 hPa 0,0 l/m 0 min 0 min 0,0 UV-I 0 W/m 10,3 km/h (2 Bft)
24.03.2013 01:28 -1,9 C -2,7 C 68 % 1015,0 hPa 0,0 l/m 0 min 0 min 0,0 UV-I 0 W/m 10,3 km/h (2 Bft)
24.03.2013 01:30 -1,9 C -2,7 C 68 % 1015,0 hPa 0,0 l/m 0 min 0 min 0,0 UV-I 0 W/m 10,3 km/h (2 Bft)
24.03.2013 01:32 -1,9 C -2,7 C 68 % 1015,0 hPa 0,0 l/m 0 min 0 min 0,0 UV-I 0 W/m 7,7 km/h (2 Bft)
24.03.2013 01:34 -1,9 C -2,7 C 68 % 1014,9 hPa 0,0 l/m 0 min 0 min 0,0 UV-I 0 W/m 7,7 km/h (2 Bft)
24.03.2013 01:36 -1,9 C -2,7 C 68 % 1015,0 hPa 0,0 l/m 0 min 0 min 0,0 UV-I 0 W/m 10,3 km/h (2 Bft)
24.03.2013 01:38 -1,9 C -2,7 C 68 % 1014,9 hPa 0,0 l/m 0 min 0 min 0,0 UV-I 0 W/m 10,3 km/h (2 Bft)
24.03.2013 01:40 -1,9 C -2,7 C 68 % 1014,9 hPa 0,0 l/m 0 min 0 min 0,0 UV-I 0 W/m 7,7 km/h (2 Bft)
24.03.2013 01:42 -1,9 C -2,7 C 68 % 1014,8 hPa 0,0 l/m 0 min 0 min 0,0 UV-I 0 W/m 10,3 km/h (2 Bft)
24.03.2013 01:44 -1,9 C -2,7 C 68 % 1014,8 hPa 0,0 l/m 0 min 0 min 0,0 UV-I 0 W/m 7,7 km/h (2 Bft)
24.03.2013 01:46 -1,9 C -2,7 C 68 % 1014,8 hPa 0,0 l/m 0 min 0 min 0,0 UV-I 0 W/m 10,3 km/h (2 Bft)
24.03.2013 01:48 -1,9 C -3,2 C 68 % 1014,8 hPa 0,0 l/m 0 min 0 min 0,0 UV-I 0 W/m 7,7 km/h (2 Bft)
24.03.2013 01:50 -1,9 C -3,2 C 68 % 1014,8 hPa 0,0 l/m 0 min 0 min 0,0 UV-I 0 W/m 7,7 km/h (2 Bft)
24.03.2013 01:52 -1,9 C -3,2 C 67 % 1014,8 hPa 0,0 l/m 0 min 0 min 0,0 UV-I 0 W/m 20,6 km/h (4 Bft)
24.03.2013 01:54 -2,0 C -3,2 C 67 % 1014,8 hPa 0,0 l/m 0 min 0 min 0,0 UV-I 0 W/m 12,9 km/h (3 Bft)
24.03.2013 01:56 -2,0 C -3,2 C 67 % 1014,7 hPa 0,0 l/m 0 min 0 min 0,0 UV-I 0 W/m 7,7 km/h (2 Bft)
24.03.2013 01:58 -2,0 C -3,2 C 67 % 1014,7 hPa 0,0 l/m 0 min 0 min 0,0 UV-I 0 W/m 12,9 km/h (3 Bft)
24.03.2013 02:00 -2,1 C -3,2 C 67 % 1014,8 hPa 0,0 l/m 0 min 0 min 0,0 UV-I 0 W/m 10,3 km/h (2 Bft)
24.03.2013 02:02 -2,1 C -3,2 C 68 % 1014,7 hPa 0,0 l/m 0 min 0 min 0,0 UV-I 0 W/m 7,7 km/h (2 Bft)
24.03.2013 02:04 -2,1 C -3,2 C 68 % 1014,7 hPa 0,0 l/m 0 min 0 min 0,0 UV-I 0 W/m 10,3 km/h (2 Bft)
24.03.2013 02:06 -2,1 C -3,2 C 68 % 1014,6 hPa 0,0 l/m 0 min 0 min 0,0 UV-I 0 W/m 10,3 km/h (2 Bft)
24.03.2013 02:08 -2,1 C -3,2 C 67 % 1014,6 hPa 0,0 l/m 0 min 0 min 0,0 UV-I 0 W/m 7,7 km/h (2 Bft)
24.03.2013 02:10 -2,1 C -3,2 C 67 % 1014,6 hPa 0,0 l/m 0 min 0 min 0,0 UV-I 0 W/m 10,3 km/h (2 Bft)
24.03.2013 02:12 -2,2 C -3,2 C 67 % 1014,7 hPa 0,0 l/m 0 min 0 min 0,0 UV-I 0 W/m 10,3 km/h (2 Bft)
24.03.2013 02:14 -2,2 C -3,2 C 67 % 1014,6 hPa 0,0 l/m 0 min 0 min 0,0 UV-I 0 W/m 15,4 km/h (3 Bft)
24.03.2013 02:16 -2,2 C -3,2 C 67 % 1014,7 hPa 0,0 l/m 0 min 0 min 0,0 UV-I 0 W/m 10,3 km/h (2 Bft)
24.03.2013 02:18 -2,2 C -3,2 C 67 % 1014,7 hPa 0,0 l/m 0 min 0 min 0,0 UV-I 0 W/m 5,1 km/h (1 Bft)
24.03.2013 02:20 -2,3 C -3,2 C 67 % 1014,6 hPa 0,0 l/m 0 min 0 min 0,0 UV-I 0 W/m 10,3 km/h (2 Bft)
24.03.2013 02:22 -2,3 C -3,2 C 67 % 1014,7 hPa 0,0 l/m 0 min 0 min 0,0 UV-I 0 W/m 5,1 km/h (1 Bft)
24.03.2013 02:24 -2,3 C -3,2 C 67 % 1014,6 hPa 0,0 l/m 0 min 0 min 0,0 UV-I 0 W/m 10,3 km/h (2 Bft)
24.03.2013 02:26 -2,3 C -3,2 C 67 % 1014,7 hPa 0,0 l/m 0 min 0 min 0,0 UV-I 0 W/m 7,7 km/h (2 Bft)
24.03.2013 02:28 -2,3 C -3,8 C 67 % 1014,6 hPa 0,0 l/m 0 min 0 min 0,0 UV-I 0 W/m 10,3 km/h (2 Bft)
24.03.2013 02:30 -2,4 C -3,8 C 67 % 1014,6 hPa 0,0 l/m 0 min 0 min 0,0 UV-I 0 W/m 10,3 km/h (2 Bft)
24.03.2013 02:32 -2,4 C -3,8 C 67 % 1014,6 hPa 0,0 l/m 0 min 0 min 0,0 UV-I 0 W/m 12,9 km/h (3 Bft)
24.03.2013 02:34 -2,4 C -3,8 C 67 % 1014,6 hPa 0,0 l/m 0 min 0 min 0,0 UV-I 0 W/m 10,3 km/h (2 Bft)
24.03.2013 02:36 -2,4 C -3,8 C 67 % 1014,6 hPa 0,0 l/m 0 min 0 min 0,0 UV-I 0 W/m 10,3 km/h (2 Bft)
24.03.2013 02:38 -2,5 C -3,8 C 67 % 1014,7 hPa 0,0 l/m 0 min 0 min 0,0 UV-I 0 W/m 10,3 km/h (2 Bft)
24.03.2013 02:40 -2,5 C -3,8 C 67 % 1014,6 hPa 0,0 l/m 0 min 0 min 0,0 UV-I 0 W/m 5,1 km/h (1 Bft)
24.03.2013 02:42 -2,6 C -3,8 C 67 % 1014,6 hPa 0,0 l/m 0 min 0 min 0,0 UV-I 0 W/m 10,3 km/h (2 Bft)
24.03.2013 02:44 -2,6 C -3,8 C 67 % 1014,6 hPa 0,0 l/m 0 min 0 min 0,0 UV-I 0 W/m 7,7 km/h (2 Bft)
24.03.2013 02:46 -2,6 C -3,8 C 67 % 1014,6 hPa 0,0 l/m 0 min 0 min 0,0 UV-I 0 W/m 0,0 km/h (0 Bft)
24.03.2013 02:48 -2,7 C -3,8 C 67 % 1014,5 hPa 0,0 l/m 0 min 0 min 0,0 UV-I 0 W/m 18,0 km/h (3 Bft)
24.03.2013 02:50 -2,7 C -3,8 C 67 % 1014,5 hPa 0,0 l/m 0 min 0 min 0,0 UV-I 0 W/m 10,3 km/h (2 Bft)
24.03.2013 02:52 -2,7 C -3,8 C 67 % 1014,5 hPa 0,0 l/m 0 min 0 min 0,0 UV-I 0 W/m 10,3 km/h (2 Bft)
24.03.2013 02:54 -2,7 C -3,8 C 67 % 1014,5 hPa 0,0 l/m 0 min 0 min 0,0 UV-I 0 W/m 5,1 km/h (1 Bft)
24.03.2013 02:56 -2,7 C -3,8 C 68 % 1014,5 hPa 0,0 l/m 0 min 0 min 0,0 UV-I 0 W/m 7,7 km/h (2 Bft)
24.03.2013 02:58 -2,7 C -3,8 C 68 % 1014,5 hPa 0,0 l/m 0 min 0 min 0,0 UV-I 0 W/m 7,7 km/h (2 Bft)
24.03.2013 03:00 -2,7 C -3,8 C 68 % 1014,5 hPa 0,0 l/m 0 min 0 min 0,0 UV-I 0 W/m 7,7 km/h (2 Bft)
24.03.2013 03:02 -2,8 C -3,8 C 68 % 1014,5 hPa 0,0 l/m 0 min 0 min 0,0 UV-I 0 W/m 7,7 km/h (2 Bft)
24.03.2013 03:04 -2,8 C -3,8 C 68 % 1014,4 hPa 0,0 l/m 0 min 0 min 0,0 UV-I 0 W/m 12,9 km/h (3 Bft)
24.03.2013 03:06 -2,8 C -3,8 C 67 % 1014,5 hPa 0,0 l/m 0 min 0 min 0,0 UV-I 0 W/m 20,6 km/h (4 Bft)
24.03.2013 03:08 -2,8 C -3,8 C 67 % 1014,5 hPa 0,0 l/m 0 min 0 min 0,0 UV-I 0 W/m 15,4 km/h (3 Bft)
24.03.2013 03:10 -2,8 C -3,8 C 67 % 1014,4 hPa 0,0 l/m 0 min 0 min 0,0 UV-I 0 W/m 10,3 km/h (2 Bft)
24.03.2013 03:12 -2,8 C -3,8 C 68 % 1014,4 hPa 0,0 l/m 0 min 0 min 0,0 UV-I 0 W/m 10,3 km/h (2 Bft)
24.03.2013 03:14 -2,8 C -3,8 C 67 % 1014,4 hPa 0,0 l/m 0 min 0 min 0,0 UV-I 0 W/m 18,0 km/h (3 Bft)
24.03.2013 03:16 -2,8 C -3,8 C 68 % 1014,3 hPa 0,0 l/m 0 min 0 min 0,0 UV-I 0 W/m 12,9 km/h (3 Bft)
24.03.2013 03:18 -2,8 C -3,8 C 68 % 1014,3 hPa 0,0 l/m 0 min 0 min 0,0 UV-I 0 W/m 5,1 km/h (1 Bft)
24.03.2013 03:20 -2,8 C -3,8 C 68 % 1014,3 hPa 0,0 l/m 0 min 0 min 0,0 UV-I 0 W/m 7,7 km/h (2 Bft)
24.03.2013 03:22 -2,8 C -3,8 C 68 % 1014,2 hPa 0,0 l/m 0 min 0 min 0,0 UV-I 0 W/m 7,7 km/h (2 Bft)
24.03.2013 03:24 -2,9 C -3,8 C 68 % 1014,2 hPa 0,0 l/m 0 min 0 min 0,0 UV-I 0 W/m 7,7 km/h (2 Bft)
24.03.2013 03:26 -2,9 C -3,8 C 68 % 1014,2 hPa 0,0 l/m 0 min 0 min 0,0 UV-I 0 W/m 10,3 km/h (2 Bft)
24.03.2013 03:28 -2,9 C -3,8 C 68 % 1014,3 hPa 0,0 l/m 0 min 0 min 0,0 UV-I 0 W/m 10,3 km/h (2 Bft)
24.03.2013 03:30 -2,9 C -3,8 C 68 % 1014,3 hPa 0,0 l/m 0 min 0 min 0,0 UV-I 0 W/m 10,3 km/h (2 Bft)
24.03.2013 03:32 -2,9 C -3,8 C 68 % 1014,3 hPa 0,0 l/m 0 min 0 min 0,0 UV-I 0 W/m 15,4 km/h (3 Bft)
24.03.2013 03:34 -2,9 C -3,8 C 68 % 1014,3 hPa 0,0 l/m 0 min 0 min 0,0 UV-I 0 W/m 7,7 km/h (2 Bft)
24.03.2013 03:36 -2,9 C -3,8 C 68 % 1014,3 hPa 0,0 l/m 0 min 0 min 0,0 UV-I 0 W/m 12,9 km/h (3 Bft)
24.03.2013 03:38 -2,9 C -3,8 C 68 % 1014,3 hPa 0,0 l/m 0 min 0 min 0,0 UV-I 0 W/m 12,9 km/h (3 Bft)
24.03.2013 03:40 -2,9 C -3,8 C 68 % 1014,3 hPa 0,0 l/m 0 min 0 min 0,0 UV-I 0 W/m 7,7 km/h (2 Bft)
24.03.2013 03:42 -2,9 C -3,8 C 68 % 1014,2 hPa 0,0 l/m 0 min 0 min 0,0 UV-I 0 W/m 12,9 km/h (3 Bft)
24.03.2013 03:44 -2,9 C -3,8 C 68 % 1014,2 hPa 0,0 l/m 0 min 0 min 0,0 UV-I 0 W/m 7,7 km/h (2 Bft)
24.03.2013 03:46 -2,9 C -3,8 C 68 % 1014,3 hPa 0,0 l/m 0 min 0 min 0,0 UV-I 0 W/m 7,7 km/h (2 Bft)
24.03.2013 03:48 -2,9 C -3,8 C 68 % 1014,3 hPa 0,0 l/m 0 min 0 min 0,0 UV-I 0 W/m 7,7 km/h (2 Bft)
24.03.2013 03:50 -2,9 C -3,8 C 68 % 1014,4 hPa 0,0 l/m 0 min 0 min 0,0 UV-I 0 W/m 12,9 km/h (3 Bft)
24.03.2013 03:52 -2,9 C -3,8 C 68 % 1014,4 hPa 0,0 l/m 0 min 0 min 0,0 UV-I 0 W/m 10,3 km/h (2 Bft)
24.03.2013 03:54 -2,9 C -3,8 C 68 % 1014,3 hPa 0,0 l/m 0 min 0 min 0,0 UV-I 0 W/m 7,7 km/h (2 Bft)
24.03.2013 03:56 -2,9 C -3,8 C 68 % 1014,4 hPa 0,0 l/m 0 min 0 min 0,0 UV-I 0 W/m 7,7 km/h (2 Bft)
24.03.2013 03:58 -2,9 C -3,8 C 68 % 1014,3 hPa 0,0 l/m 0 min 0 min 0,0 UV-I 0 W/m 7,7 km/h (2 Bft)
24.03.2013 04:00 -2,9 C -3,8 C 68 % 1014,3 hPa 0,0 l/m 0 min 0 min 0,0 UV-I 0 W/m 7,7 km/h (2 Bft)
24.03.2013 04:02 -2,9 C -3,8 C 68 % 1014,3 hPa 0,0 l/m 0 min 0 min 0,0 UV-I 0 W/m 12,9 km/h (3 Bft)
24.03.2013 04:04 -3,0 C -3,8 C 68 % 1014,3 hPa 0,0 l/m 0 min 0 min 0,0 UV-I 0 W/m 7,7 km/h (2 Bft)
24.03.2013 04:06 -3,0 C -3,8 C 68 % 1014,2 hPa 0,0 l/m 0 min 0 min 0,0 UV-I 0 W/m 12,9 km/h (3 Bft)
24.03.2013 04:08 -3,0 C -3,8 C 68 % 1014,2 hPa 0,0 l/m 0 min 0 min 0,0 UV-I 0 W/m 7,7 km/h (2 Bft)
24.03.2013 04:10 -3,0 C -3,8 C 68 % 1014,2 hPa 0,0 l/m 0 min 0 min 0,0 UV-I 0 W/m 10,3 km/h (2 Bft)
24.03.2013 04:12 -3,0 C -3,8 C 68 % 1014,2 hPa 0,0 l/m 0 min 0 min 0,0 UV-I 0 W/m 7,7 km/h (2 Bft)
24.03.2013 04:14 -3,0 C -3,8 C 68 % 1014,3 hPa 0,0 l/m 0 min 0 min 0,0 UV-I 0 W/m 10,3 km/h (2 Bft)
24.03.2013 04:16 -3,0 C -3,8 C 68 % 1014,3 hPa 0,0 l/m 0 min 0 min 0,0 UV-I 0 W/m 12,9 km/h (3 Bft)
24.03.2013 04:18 -3,0 C -3,8 C 68 % 1014,3 hPa 0,0 l/m 0 min 0 min 0,0 UV-I 0 W/m 5,1 km/h (1 Bft)
24.03.2013 04:20 -3,0 C -3,8 C 68 % 1014,2 hPa 0,0 l/m 0 min 0 min 0,0 UV-I 0 W/m 7,7 km/h (2 Bft)
24.03.2013 04:22 -3,0 C -3,8 C 68 % 1014,3 hPa 0,0 l/m 0 min 0 min 0,0 UV-I 0 W/m 5,1 km/h (1 Bft)
24.03.2013 04:24 -3,1 C -3,8 C 68 % 1014,3 hPa 0,0 l/m 0 min 0 min 0,0 UV-I 0 W/m 7,7 km/h (2 Bft)
24.03.2013 04:26 -3,1 C -3,8 C 68 % 1014,4 hPa 0,0 l/m 0 min 0 min 0,0 UV-I 0 W/m 10,3 km/h (2 Bft)
24.03.2013 04:28 -3,1 C -3,8 C 68 % 1014,3 hPa 0,0 l/m 0 min 0 min 0,0 UV-I 0 W/m 10,3 km/h (2 Bft)
24.03.2013 04:30 -3,1 C -3,8 C 68 % 1014,3 hPa 0,0 l/m 0 min 0 min 0,0 UV-I 0 W/m 10,3 km/h (2 Bft)
24.03.2013 04:32 -3,1 C -3,8 C 68 % 1014,4 hPa 0,0 l/m 0 min 0 min 0,0 UV-I 0 W/m 5,1 km/h (1 Bft)
24.03.2013 04:34 -3,1 C -3,8 C 68 % 1014,4 hPa 0,0 l/m 0 min 0 min 0,0 UV-I 0 W/m 5,1 km/h (1 Bft)
24.03.2013 04:36 -3,1 C -3,8 C 68 % 1014,4 hPa 0,0 l/m 0 min 0 min 0,0 UV-I 0 W/m 2,6 km/h (1 Bft)
24.03.2013 04:38 -3,1 C -3,8 C 68 % 1014,4 hPa 0,0 l/m 0 min 0 min 0,0 UV-I 0 W/m 7,7 km/h (2 Bft)
24.03.2013 04:40 -3,1 C -3,8 C 68 % 1014,4 hPa 0,0 l/m 0 min 0 min 0,0 UV-I 0 W/m 25,7 km/h (4 Bft)
24.03.2013 04:42 -3,1 C -3,8 C 68 % 1014,4 hPa 0,0 l/m 0 min 0 min 0,0 UV-I 0 W/m 5,1 km/h (1 Bft)
24.03.2013 04:44 -3,1 C -3,8 C 68 % 1014,4 hPa 0,0 l/m 0 min 0 min 0,0 UV-I 0 W/m 10,3 km/h (2 Bft)
24.03.2013 04:46 -3,1 C -3,8 C 68 % 1014,4 hPa 0,0 l/m 0 min 0 min 0,0 UV-I 0 W/m 7,7 km/h (2 Bft)
24.03.2013 04:48 -3,2 C -3,8 C 68 % 1014,4 hPa 0,0 l/m 0 min 0 min 0,0 UV-I 0 W/m 7,7 km/h (2 Bft)
24.03.2013 04:50 -3,2 C -3,8 C 68 % 1014,4 hPa 0,0 l/m 0 min 0 min 0,0 UV-I 0 W/m 12,9 km/h (3 Bft)
24.03.2013 04:52 -3,2 C -3,8 C 67 % 1014,4 hPa 0,0 l/m 0 min 0 min 0,0 UV-I 0 W/m 10,3 km/h (2 Bft)
24.03.2013 04:54 -3,2 C -3,8 C 67 % 1014,4 hPa 0,0 l/m 0 min 0 min 0,0 UV-I 0 W/m 12,9 km/h (3 Bft)
24.03.2013 04:56 -3,2 C -4,3 C 67 % 1014,4 hPa 0,0 l/m 0 min 0 min 0,0 UV-I 0 W/m 5,1 km/h (1 Bft)
24.03.2013 04:58 -3,2 C -4,3 C 67 % 1014,5 hPa 0,0 l/m 0 min 0 min 0,0 UV-I 0 W/m 7,7 km/h (2 Bft)
24.03.2013 05:00 -3,2 C -4,3 C 67 % 1014,4 hPa 0,0 l/m 0 min 0 min 0,0 UV-I 0 W/m 10,3 km/h (2 Bft)
24.03.2013 05:02 -3,2 C -4,3 C 67 % 1014,5 hPa 0,0 l/m 0 min 0 min 0,0 UV-I 0 W/m 15,4 km/h (3 Bft)
24.03.2013 05:04 -3,2 C -4,3 C 67 % 1014,5 hPa 0,0 l/m 0 min 0 min 0,0 UV-I 0 W/m 12,9 km/h (3 Bft)
24.03.2013 05:06 -3,2 C -4,3 C 67 % 1014,5 hPa 0,0 l/m 0 min 0 min 0,0 UV-I 0 W/m 18,0 km/h (3 Bft)
24.03.2013 05:08 -3,2 C -4,3 C 66 % 1014,5 hPa 0,0 l/m 0 min 0 min 0,0 UV-I 0 W/m 23,2 km/h (4 Bft)
24.03.2013 05:10 -3,2 C -4,3 C 66 % 1014,6 hPa 0,0 l/m 0 min 0 min 0,0 UV-I 0 W/m 2,6 km/h (1 Bft)
24.03.2013 05:12 -3,2 C -4,3 C 66 % 1014,5 hPa 0,0 l/m 0 min 0 min 0,0 UV-I 0 W/m 18,0 km/h (3 Bft)
24.03.2013 05:14 -3,2 C -4,3 C 66 % 1014,5 hPa 0,0 l/m 0 min 0 min 0,0 UV-I 0 W/m 18,0 km/h (3 Bft)
24.03.2013 05:16 -3,3 C -4,3 C 66 % 1014,6 hPa 0,0 l/m 0 min 0 min 0,0 UV-I 0 W/m 12,9 km/h (3 Bft)
24.03.2013 05:18 -3,3 C -4,3 C 66 % 1014,5 hPa 0,0 l/m 0 min 0 min 0,0 UV-I 0 W/m 12,9 km/h (3 Bft)
24.03.2013 05:20 -3,3 C -4,3 C 66 % 1014,6 hPa 0,0 l/m 0 min 0 min 0,0 UV-I 0 W/m 7,7 km/h (2 Bft)
24.03.2013 05:22 -3,3 C -4,3 C 67 % 1014,5 hPa 0,0 l/m 0 min 0 min 0,0 UV-I 0 W/m 7,7 km/h (2 Bft)
24.03.2013 05:24 -3,3 C -4,3 C 66 % 1014,5 hPa 0,0 l/m 0 min 0 min 0,0 UV-I 0 W/m 15,4 km/h (3 Bft)
24.03.2013 05:26 -3,3 C -4,3 C 66 % 1014,6 hPa 0,0 l/m 0 min 0 min 0,0 UV-I 0 W/m 10,3 km/h (2 Bft)
24.03.2013 05:28 -3,3 C -4,3 C 66 % 1014,6 hPa 0,0 l/m 0 min 0 min 0,0 UV-I 0 W/m 7,7 km/h (2 Bft)
24.03.2013 05:30 -3,3 C -4,3 C 67 % 1014,7 hPa 0,0 l/m 0 min 0 min 0,0 UV-I 0 W/m 10,3 km/h (2 Bft)
24.03.2013 05:32 -3,3 C -4,3 C 66 % 1014,6 hPa 0,0 l/m 0 min 0 min 0,0 UV-I 0 W/m 25,7 km/h (4 Bft)
24.03.2013 05:34 -3,3 C -4,3 C 66 % 1014,6 hPa 0,0 l/m 0 min 0 min 0,0 UV-I 0 W/m 20,6 km/h (4 Bft)
24.03.2013 05:36 -3,3 C -4,3 C 66 % 1014,7 hPa 0,0 l/m 0 min 0 min 0,0 UV-I 0 W/m 18,0 km/h (3 Bft)
24.03.2013 05:38 -3,3 C -4,3 C 66 % 1014,7 hPa 0,0 l/m 0 min 0 min 0,0 UV-I 0 W/m 12,9 km/h (3 Bft)
24.03.2013 05:40 -3,3 C -4,3 C 67 % 1014,7 hPa 0,0 l/m 0 min 0 min 0,0 UV-I 0 W/m 12,9 km/h (3 Bft)
24.03.2013 05:42 -3,4 C -4,3 C 66 % 1014,7 hPa 0,0 l/m 0 min 0 min 0,0 UV-I 0 W/m 12,9 km/h (3 Bft)
24.03.2013 05:44 -3,4 C -4,3 C 67 % 1014,7 hPa 0,0 l/m 0 min 0 min 0,0 UV-I 0 W/m 7,7 km/h (2 Bft)
24.03.2013 05:46 -3,4 C -4,3 C 67 % 1014,7 hPa 0,0 l/m 0 min 0 min 0,0 UV-I 0 W/m 10,3 km/h (2 Bft)
24.03.2013 05:48 -3,4 C -4,3 C 67 % 1014,7 hPa 0,0 l/m 0 min 0 min 0,0 UV-I 0 W/m 10,3 km/h (2 Bft)
24.03.2013 05:50 -3,4 C -4,3 C 67 % 1014,6 hPa 0,0 l/m 0 min 0 min 0,0 UV-I 0 W/m 7,7 km/h (2 Bft)
24.03.2013 05:52 -3,4 C -4,3 C 67 % 1014,7 hPa 0,0 l/m 0 min 0 min 0,0 UV-I 0 W/m 7,7 km/h (2 Bft)
24.03.2013 05:54 -3,4 C -4,3 C 67 % 1014,7 hPa 0,0 l/m 0 min 0 min 0,0 UV-I 0 W/m 5,1 km/h (1 Bft)
24.03.2013 05:56 -3,4 C -4,3 C 67 % 1014,7 hPa 0,0 l/m 0 min 0 min 0,0 UV-I 0 W/m 7,7 km/h (2 Bft)
24.03.2013 05:58 -3,4 C -4,3 C 67 % 1014,7 hPa 0,0 l/m 0 min 0 min 0,0 UV-I 0 W/m 7,7 km/h (2 Bft)
24.03.2013 06:00 -3,4 C -4,3 C 67 % 1014,7 hPa 0,0 l/m 0 min 0 min 0,0 UV-I 0 W/m 10,3 km/h (2 Bft)
24.03.2013 06:02 -3,4 C -4,3 C 67 % 1014,7 hPa 0,0 l/m 0 min 0 min 0,0 UV-I 0 W/m 23,2 km/h (4 Bft)
24.03.2013 06:04 -3,4 C -4,3 C 67 % 1014,6 hPa 0,0 l/m 0 min 0 min 0,0 UV-I 0 W/m 12,9 km/h (3 Bft)
24.03.2013 06:06 -3,5 C -4,3 C 66 % 1014,7 hPa 0,0 l/m 0 min 0 min 0,0 UV-I 0 W/m 18,0 km/h (3 Bft)
24.03.2013 06:08 -3,5 C -4,3 C 66 % 1014,7 hPa 0,0 l/m 0 min 0 min 0,0 UV-I 0 W/m 25,7 km/h (4 Bft)
24.03.2013 06:10 -3,5 C -4,3 C 66 % 1014,7 hPa 0,0 l/m 0 min 0 min 0,0 UV-I 0 W/m 7,7 km/h (2 Bft)
24.03.2013 06:12 -3,5 C -4,3 C 67 % 1014,7 hPa 0,0 l/m 0 min 0 min 0,0 UV-I 0 W/m 10,3 km/h (2 Bft)
24.03.2013 06:14 -3,5 C -4,3 C 67 % 1014,8 hPa 0,0 l/m 0 min 0 min 0,0 UV-I 0 W/m 10,3 km/h (2 Bft)
24.03.2013 06:16 -3,5 C -4,3 C 67 % 1014,8 hPa 0,0 l/m 0 min 0 min 0,0 UV-I 0 W/m 20,6 km/h (4 Bft)
24.03.2013 06:18 -3,6 C -4,3 C 67 % 1014,7 hPa 0,0 l/m 0 min 0 min 0,0 UV-I 0 W/m 7,7 km/h (2 Bft)
24.03.2013 06:20 -3,6 C -4,3 C 67 % 1014,8 hPa 0,0 l/m 0 min 0 min 0,0 UV-I 0 W/m 10,3 km/h (2 Bft)
24.03.2013 06:22 -3,6 C -4,3 C 67 % 1014,9 hPa 0,0 l/m 0 min 0 min 0,0 UV-I 0 W/m 15,4 km/h (3 Bft)
24.03.2013 06:24 -3,6 C -4,3 C 67 % 1014,9 hPa 0,0 l/m 0 min 0 min 0,0 UV-I 0 W/m 18,0 km/h (3 Bft)
24.03.2013 06:26 -3,6 C -4,3 C 66 % 1014,9 hPa 0,0 l/m 0 min 0 min 0,0 UV-I 0 W/m 18,0 km/h (3 Bft)
24.03.2013 06:28 -3,6 C -4,3 C 67 % 1014,9 hPa 0,0 l/m 0 min 0 min 0,0 UV-I 0 W/m 10,3 km/h (2 Bft)
24.03.2013 06:30 -3,6 C -4,3 C 66 % 1014,9 hPa 0,0 l/m 0 min 0 min 0,0 UV-I 0 W/m 7,7 km/h (2 Bft)
24.03.2013 06:32 -3,6 C -4,3 C 66 % 1014,9 hPa 0,0 l/m 0 min 0 min 0,0 UV-I 0 W/m 15,4 km/h (3 Bft)
24.03.2013 06:34 -3,6 C -4,3 C 66 % 1014,9 hPa 0,0 l/m 0 min 0 min 0,0 UV-I 0 W/m 12,9 km/h (3 Bft)
24.03.2013 06:36 -3,6 C -4,3 C 66 % 1014,9 hPa 0,0 l/m 0 min 0 min 0,0 UV-I 0 W/m 7,7 km/h (2 Bft)
24.03.2013 06:38 -3,6 C -4,3 C 66 % 1014,9 hPa 0,0 l/m 0 min 0 min 0,0 UV-I 0 W/m 10,3 km/h (2 Bft)
24.03.2013 06:40 -3,6 C -4,3 C 66 % 1014,9 hPa 0,0 l/m 0 min 0 min 0,0 UV-I 5 W/m 10,3 km/h (2 Bft)
24.03.2013 06:42 -3,7 C -4,3 C 66 % 1014,9 hPa 0,0 l/m 0 min 0 min 0,0 UV-I 5 W/m 7,7 km/h (2 Bft)
24.03.2013 06:44 -3,7 C -4,3 C 66 % 1014,9 hPa 0,0 l/m 0 min 0 min 0,0 UV-I 7 W/m 10,3 km/h (2 Bft)
24.03.2013 06:46 -3,7 C -4,3 C 66 % 1015,0 hPa 0,0 l/m 0 min 0 min 0,0 UV-I 7 W/m 12,9 km/h (3 Bft)
24.03.2013 06:48 -3,7 C -4,3 C 65 % 1014,9 hPa 0,0 l/m 0 min 0 min 0,0 UV-I 7 W/m 10,3 km/h (2 Bft)
24.03.2013 06:50 -3,7 C -4,3 C 65 % 1014,9 hPa 0,0 l/m 0 min 0 min 0,0 UV-I 9 W/m 20,6 km/h (4 Bft)
24.03.2013 06:52 -3,7 C -4,3 C 65 % 1014,9 hPa 0,0 l/m 0 min 0 min 0,0 UV-I 11 W/m 12,9 km/h (3 Bft)
24.03.2013 06:54 -3,7 C -4,3 C 65 % 1014,9 hPa 0,0 l/m 0 min 0 min 0,0 UV-I 11 W/m 15,4 km/h (3 Bft)
24.03.2013 06:56 -3,7 C -4,3 C 65 % 1014,9 hPa 0,0 l/m 0 min 0 min 0,0 UV-I 12 W/m 18,0 km/h (3 Bft)
24.03.2013 06:58 -3,7 C -4,3 C 64 % 1014,9 hPa 0,0 l/m 0 min 0 min 0,0 UV-I 14 W/m 20,6 km/h (4 Bft)
24.03.2013 07:00 -3,7 C -4,3 C 65 % 1014,9 hPa 0,0 l/m 0 min 0 min 0,0 UV-I 16 W/m 7,7 km/h (2 Bft)
24.03.2013 07:02 -3,7 C -4,3 C 65 % 1015,0 hPa 0,0 l/m 0 min 0 min 0,0 UV-I 18 W/m 5,1 km/h (1 Bft)
24.03.2013 07:04 -3,7 C -4,3 C 65 % 1014,9 hPa 0,0 l/m 0 min 0 min 0,0 UV-I 19 W/m 10,3 km/h (2 Bft)
24.03.2013 07:06 -3,7 C -4,3 C 65 % 1014,9 hPa 0,0 l/m 0 min 0 min 0,0 UV-I 21 W/m 15,4 km/h (3 Bft)
24.03.2013 07:08 -3,7 C -4,3 C 64 % 1014,9 hPa 0,0 l/m 0 min 0 min 0,0 UV-I 23 W/m 7,7 km/h (2 Bft)
24.03.2013 07:10 -3,7 C -4,3 C 65 % 1015,0 hPa 0,0 l/m 0 min 0 min 0,0 UV-I 25 W/m 2,6 km/h (1 Bft)
24.03.2013 07:12 -3,7 C -4,3 C 65 % 1014,9 hPa 0,0 l/m 0 min 0 min 0,0 UV-I 26 W/m 12,9 km/h (3 Bft)
24.03.2013 07:14 -3,7 C -4,3 C 65 % 1014,9 hPa 0,0 l/m 0 min 0 min 0,0 UV-I 26 W/m 18,0 km/h (3 Bft)
24.03.2013 07:16 -3,7 C -4,3 C 65 % 1014,9 hPa 0,0 l/m 0 min 0 min 0,0 UV-I 28 W/m 10,3 km/h (2 Bft)
24.03.2013 07:18 -3,6 C -4,3 C 65 % 1014,9 hPa 0,0 l/m 0 min 0 min 0,0 UV-I 30 W/m 5,1 km/h (1 Bft)
24.03.2013 07:20 -3,6 C -4,3 C 65 % 1014,9 hPa 0,0 l/m 0 min 0 min 0,0 UV-I 32 W/m 7,7 km/h (2 Bft)
24.03.2013 07:22 -3,6 C -4,3 C 64 % 1014,9 hPa 0,0 l/m 0 min 0 min 0,0 UV-I 33 W/m 25,7 km/h (4 Bft)
24.03.2013 07:24 -3,6 C -4,3 C 64 % 1014,9 hPa 0,0 l/m 0 min 0 min 0,0 UV-I 35 W/m 23,2 km/h (4 Bft)
24.03.2013 07:26 -3,6 C -4,3 C 64 % 1014,9 hPa 0,0 l/m 0 min 0 min 0,0 UV-I 37 W/m 18,0 km/h (3 Bft)
24.03.2013 07:28 -3,6 C -4,3 C 64 % 1014,9 hPa 0,0 l/m 0 min 0 min 0,0 UV-I 39 W/m 5,1 km/h (1 Bft)
24.03.2013 07:30 -3,6 C -4,3 C 64 % 1014,9 hPa 0,0 l/m 0 min 0 min 0,0 UV-I 40 W/m 12,9 km/h (3 Bft)
24.03.2013 07:32 -3,6 C -4,3 C 64 % 1014,8 hPa 0,0 l/m 0 min 0 min 0,0 UV-I 42 W/m 10,3 km/h (2 Bft)
24.03.2013 07:34 -3,6 C -4,3 C 64 % 1014,9 hPa 0,0 l/m 0 min 0 min 0,0 UV-I 42 W/m 12,9 km/h (3 Bft)
24.03.2013 07:36 -3,6 C -4,3 C 63 % 1014,9 hPa 0,0 l/m 0 min 0 min 0,0 UV-I 46 W/m 25,7 km/h (4 Bft)
24.03.2013 07:38 -3,6 C -4,3 C 63 % 1014,9 hPa 0,0 l/m 0 min 0 min 0,0 UV-I 47 W/m 10,3 km/h (2 Bft)
24.03.2013 07:40 -3,6 C -4,3 C 63 % 1014,9 hPa 0,0 l/m 0 min 0 min 0,0 UV-I 49 W/m 10,3 km/h (2 Bft)
24.03.2013 07:42 -3,6 C -4,3 C 64 % 1014,9 hPa 0,0 l/m 0 min 0 min 0,0 UV-I 51 W/m 12,9 km/h (3 Bft)
24.03.2013 07:44 -3,6 C -4,3 C 64 % 1014,9 hPa 0,0 l/m 0 min 0 min 0,0 UV-I 53 W/m 5,1 km/h (1 Bft)
24.03.2013 07:46 -3,6 C -4,3 C 63 % 1014,8 hPa 0,0 l/m 0 min 0 min 0,0 UV-I 56 W/m 20,6 km/h (4 Bft)
24.03.2013 07:48 -3,6 C -4,3 C 63 % 1014,9 hPa 0,0 l/m 0 min 0 min 0,0 UV-I 60 W/m 18,0 km/h (3 Bft)
24.03.2013 07:50 -3,6 C -4,3 C 63 % 1014,8 hPa 0,0 l/m 0 min 0 min 0,0 UV-I 62 W/m 20,6 km/h (4 Bft)
24.03.2013 07:52 -3,6 C -3,8 C 63 % 1014,8 hPa 0,0 l/m 0 min 0 min 0,0 UV-I 63 W/m 5,1 km/h (1 Bft)
24.03.2013 07:54 -3,5 C -3,8 C 63 % 1014,9 hPa 0,0 l/m 0 min 0 min 0,0 UV-I 67 W/m 12,9 km/h (3 Bft)
24.03.2013 07:56 -3,4 C -3,8 C 64 % 1014,9 hPa 0,0 l/m 0 min 0 min 0,0 UV-I 70 W/m 12,9 km/h (3 Bft)
24.03.2013 07:58 -3,4 C -3,8 C 63 % 1014,8 hPa 0,0 l/m 0 min 0 min 0,0 UV-I 70 W/m 18,0 km/h (3 Bft)
24.03.2013 08:00 -3,4 C -3,8 C 62 % 1014,9 hPa 0,0 l/m 0 min 0 min 0,0 UV-I 74 W/m 15,4 km/h (3 Bft)
24.03.2013 08:02 -3,4 C -3,8 C 62 % 1014,9 hPa 0,0 l/m 0 min 0 min 0,0 UV-I 76 W/m 38,6 km/h (5 Bft)
24.03.2013 08:04 -3,4 C -3,8 C 61 % 1014,8 hPa 0,0 l/m 0 min 0 min 0,0 UV-I 76 W/m 20,6 km/h (4 Bft)
24.03.2013 08:06 -3,4 C -3,8 C 62 % 1014,9 hPa 0,0 l/m 0 min 0 min 0,0 UV-I 76 W/m 18,0 km/h (3 Bft)
24.03.2013 08:08 -3,4 C -3,8 C 61 % 1014,8 hPa 0,0 l/m 0 min 0 min 0,0 UV-I 76 W/m 20,6 km/h (4 Bft)
24.03.2013 08:10 -3,4 C -3,8 C 61 % 1014,9 hPa 0,0 l/m 0 min 0 min 0,0 UV-I 76 W/m 23,2 km/h (4 Bft)
24.03.2013 08:12 -3,3 C -3,8 C 61 % 1014,8 hPa 0,0 l/m 0 min 0 min 0,0 UV-I 76 W/m 18,0 km/h (3 Bft)
24.03.2013 08:14 -3,3 C -3,8 C 61 % 1014,8 hPa 0,0 l/m 0 min 0 min 0,0 UV-I 77 W/m 23,2 km/h (4 Bft)
24.03.2013 08:16 -3,3 C -3,8 C 61 % 1014,9 hPa 0,0 l/m 0 min 0 min 0,0 UV-I 77 W/m 20,6 km/h (4 Bft)
24.03.2013 08:18 -3,3 C -3,8 C 61 % 1014,9 hPa 0,0 l/m 0 min 0 min 0,0 UV-I 79 W/m 10,3 km/h (2 Bft)
24.03.2013 08:20 -3,3 C -3,2 C 61 % 1014,9 hPa 0,0 l/m 0 min 0 min 0,0 UV-I 81 W/m 18,0 km/h (3 Bft)
24.03.2013 08:22 -3,2 C -3,2 C 61 % 1014,9 hPa 0,0 l/m 0 min 0 min 0,0 UV-I 81 W/m 10,3 km/h (2 Bft)
24.03.2013 08:24 -3,2 C -3,2 C 61 % 1014,9 hPa 0,0 l/m 0 min 0 min 0,0 UV-I 84 W/m 18,0 km/h (3 Bft)
24.03.2013 08:26 -3,2 C -3,2 C 60 % 1014,8 hPa 0,0 l/m 0 min 0 min 0,0 UV-I 88 W/m 15,4 km/h (3 Bft)
24.03.2013 08:28 -3,2 C -3,2 C 60 % 1014,8 hPa 0,0 l/m 0 min 0 min 0,0 UV-I 90 W/m 28,3 km/h (4 Bft)
24.03.2013 08:30 -3,2 C -3,2 C 60 % 1014,9 hPa 0,0 l/m 0 min 0 min 0,0 UV-I 95 W/m 12,9 km/h (3 Bft)
24.03.2013 08:32 -3,1 C -3,2 C 60 % 1014,9 hPa 0,0 l/m 0 min 0 min 0,0 UV-I 97 W/m 20,6 km/h (4 Bft)
24.03.2013 08:34 -3,1 C -3,2 C 59 % 1014,8 hPa 0,0 l/m 0 min 0 min 0,0 UV-I 102 W/m 18,0 km/h (3 Bft)
24.03.2013 08:36 -3,1 C -3,2 C 59 % 1014,9 hPa 0,0 l/m 0 min 0 min 0,0 UV-I 105 W/m 25,7 km/h (4 Bft)
24.03.2013 08:38 -3,1 C -3,2 C 59 % 1014,8 hPa 0,0 l/m 0 min 0 min 0,0 UV-I 107 W/m 12,9 km/h (3 Bft)
24.03.2013 08:40 -3,1 C -3,2 C 59 % 1014,8 hPa 0,0 l/m 0 min 0 min 0,0 UV-I 113 W/m 18,0 km/h (3 Bft)
24.03.2013 08:42 -3,0 C -3,2 C 59 % 1014,8 hPa 0,0 l/m 0 min 0 min 0,0 UV-I 114 W/m 10,3 km/h (2 Bft)
24.03.2013 08:44 -2,9 C -3,2 C 60 % 1014,9 hPa 0,0 l/m 0 min 0 min 0,0 UV-I 113 W/m 10,3 km/h (2 Bft)
24.03.2013 08:46 -2,9 C -2,7 C 59 % 1014,7 hPa 0,0 l/m 0 min 0 min 0,0 UV-I 114 W/m 15,4 km/h (3 Bft)
24.03.2013 08:48 -2,9 C -2,7 C 59 % 1014,8 hPa 0,0 l/m 0 min 0 min 0,0 UV-I 116 W/m 18,0 km/h (3 Bft)
24.03.2013 08:50 -2,8 C -2,7 C 59 % 1014,7 hPa 0,0 l/m 0 min 0 min 0,0 UV-I 118 W/m 7,7 km/h (2 Bft)
24.03.2013 08:52 -2,8 C -2,7 C 60 % 1014,8 hPa 0,0 l/m 0 min 0 min 0,0 UV-I 121 W/m 10,3 km/h (2 Bft)
24.03.2013 08:54 -2,7 C -2,7 C 59 % 1014,8 hPa 0,0 l/m 0 min 0 min 0,0 UV-I 123 W/m 12,9 km/h (3 Bft)
24.03.2013 08:56 -2,7 C -2,7 C 59 % 1014,7 hPa 0,0 l/m 0 min 0 min 0,0 UV-I 125 W/m 15,4 km/h (3 Bft)
24.03.2013 08:58 -2,7 C -2,7 C 59 % 1014,8 hPa 0,0 l/m 0 min 0 min 0,0 UV-I 127 W/m 18,0 km/h (3 Bft)
24.03.2013 09:00 -2,6 C -2,7 C 58 % 1014,7 hPa 0,0 l/m 0 min 0 min 0,0 UV-I 128 W/m 15,4 km/h (3 Bft)
24.03.2013 09:02 -2,6 C -2,7 C 58 % 1014,7 hPa 0,0 l/m 0 min 0 min 0,0 UV-I 130 W/m 12,9 km/h (3 Bft)
24.03.2013 09:04 -2,6 C -2,7 C 57 % 1014,7 hPa 0,0 l/m 0 min 0 min 0,0 UV-I 139 W/m 15,4 km/h (3 Bft)
24.03.2013 09:06 -2,6 C -2,7 C 57 % 1014,7 hPa 0,0 l/m 0 min 0 min 0,0 UV-I 142 W/m 20,6 km/h (4 Bft)
24.03.2013 09:08 -2,5 C -2,7 C 58 % 1014,7 hPa 0,0 l/m 0 min 0 min 0,0 UV-I 146 W/m 10,3 km/h (2 Bft)
24.03.2013 09:10 -2,4 C -2,7 C 58 % 1014,7 hPa 0,0 l/m 0 min 0 min 0,0 UV-I 148 W/m 28,3 km/h (4 Bft)
24.03.2013 09:12 -2,4 C -2,1 C 57 % 1014,7 hPa 0,0 l/m 0 min 0 min 0,0 UV-I 153 W/m 10,3 km/h (2 Bft)
24.03.2013 09:14 -2,4 C -2,1 C 57 % 1014,8 hPa 0,0 l/m 0 min 0 min 0,0 UV-I 160 W/m 12,9 km/h (3 Bft)
24.03.2013 09:16 -2,3 C -2,1 C 57 % 1014,7 hPa 0,0 l/m 0 min 0 min 0,0 UV-I 169 W/m 15,4 km/h (3 Bft)
24.03.2013 09:18 -2,3 C -2,1 C 57 % 1014,7 hPa 0,0 l/m 0 min 0 min 0,0 UV-I 174 W/m 7,7 km/h (2 Bft)
24.03.2013 09:20 -2,2 C -2,1 C 57 % 1014,7 hPa 0,0 l/m 0 min 0 min 0,0 UV-I 176 W/m 7,7 km/h (2 Bft)
24.03.2013 09:22 -2,2 C -2,1 C 57 % 1014,7 hPa 0,0 l/m 0 min 0 min 0,0 UV-I 183 W/m 12,9 km/h (3 Bft)
24.03.2013 09:24 -2,1 C -2,1 C 57 % 1014,7 hPa 0,0 l/m 0 min 0 min 0,0 UV-I 185 W/m 18,0 km/h (3 Bft)
24.03.2013 09:26 -2,1 C -2,1 C 57 % 1014,6 hPa 0,0 l/m 0 min 0 min 0,0 UV-I 193 W/m 15,4 km/h (3 Bft)
24.03.2013 09:28 -2,1 C -2,1 C 56 % 1014,6 hPa 0,0 l/m 0 min 0 min 0,0 UV-I 204 W/m 15,4 km/h (3 Bft)
24.03.2013 09:30 -2,0 C -1,6 C 56 % 1014,6 hPa 0,0 l/m 0 min 0 min 0,0 UV-I 199 W/m 10,3 km/h (2 Bft)
24.03.2013 09:32 -1,9 C -1,6 C 56 % 1014,6 hPa 0,0 l/m 0 min 0 min 0,0 UV-I 202 W/m 12,9 km/h (3 Bft)
24.03.2013 09:34 -1,9 C -1,6 C 56 % 1014,6 hPa 0,0 l/m 0 min 0 min 0,0 UV-I 206 W/m 10,3 km/h (2 Bft)
24.03.2013 09:36 -1,8 C -1,6 C 56 % 1014,5 hPa 0,0 l/m 0 min 0 min 0,0 UV-I 207 W/m 18,0 km/h (3 Bft)
24.03.2013 09:38 -1,8 C -1,0 C 55 % 1014,5 hPa 0,0 l/m 0 min 0 min 0,0 UV-I 204 W/m 12,9 km/h (3 Bft)
24.03.2013 09:40 -1,7 C -1,6 C 56 % 1014,5 hPa 0,0 l/m 0 min 0 min 0,0 UV-I 209 W/m 12,9 km/h (3 Bft)
24.03.2013 09:42 -1,7 C -1,0 C 56 % 1014,6 hPa 0,0 l/m 0 min 0 min 0,0 UV-I 211 W/m 7,7 km/h (2 Bft)
24.03.2013 09:44 -1,7 C -1,0 C 55 % 1014,5 hPa 0,0 l/m 0 min 0 min 0,0 UV-I 211 W/m 12,9 km/h (3 Bft)
24.03.2013 09:46 -1,6 C -1,6 C 55 % 1014,5 hPa 0,0 l/m 0 min 0 min 0,0 UV-I 218 W/m 15,4 km/h (3 Bft)
24.03.2013 09:48 -1,6 C -1,0 C 55 % 1014,6 hPa 0,0 l/m 0 min 0 min 0,0 UV-I 221 W/m 10,3 km/h (2 Bft)
24.03.2013 09:50 -1,6 C -1,0 C 55 % 1014,6 hPa 0,0 l/m 0 min 0 min 0,0 UV-I 225 W/m 18,0 km/h (3 Bft)
24.03.2013 09:52 -1,5 C -1,0 C 54 % 1014,6 hPa 0,0 l/m 0 min 0 min 0,0 UV-I 225 W/m 15,4 km/h (3 Bft)
24.03.2013 09:54 -1,5 C -1,0 C 54 % 1014,6 hPa 0,0 l/m 0 min 0 min 0,0 UV-I 223 W/m 28,3 km/h (4 Bft)
24.03.2013 09:56 -1,5 C -1,0 C 54 % 1014,5 hPa 0,0 l/m 0 min 0 min 0,0 UV-I 202 W/m 7,7 km/h (2 Bft)
24.03.2013 09:58 -1,4 C -1,0 C 55 % 1014,5 hPa 0,0 l/m 0 min 0 min 0,0 UV-I 193 W/m 10,3 km/h (2 Bft)
24.03.2013 10:00 -1,4 C -1,0 C 54 % 1014,5 hPa 0,0 l/m 0 min 0 min 0,0 UV-I 202 W/m 15,4 km/h (3 Bft)
24.03.2013 10:02 -1,3 C -1,0 C 54 % 1014,5 hPa 0,0 l/m 0 min 0 min 0,0 UV-I 193 W/m 18,0 km/h (3 Bft)
24.03.2013 10:04 -1,3 C -1,0 C 53 % 1014,5 hPa 0,0 l/m 0 min 0 min 0,0 UV-I 190 W/m 30,9 km/h (5 Bft)
24.03.2013 10:06 -1,3 C -1,0 C 54 % 1014,6 hPa 0,0 l/m 0 min 0 min 0,0 UV-I 188 W/m 12,9 km/h (3 Bft)
24.03.2013 10:08 -1,3 C -1,0 C 54 % 1014,5 hPa 0,0 l/m 0 min 0 min 0,0 UV-I 188 W/m 15,4 km/h (3 Bft)
24.03.2013 10:10 -1,3 C -1,0 C 54 % 1014,5 hPa 0,0 l/m 0 min 0 min 0,0 UV-I 192 W/m 28,3 km/h (4 Bft)
24.03.2013 10:12 -1,3 C -1,0 C 53 % 1014,4 hPa 0,0 l/m 0 min 0 min 0,0 UV-I 200 W/m 15,4 km/h (3 Bft)
24.03.2013 10:14 -1,3 C -1,0 C 53 % 1014,5 hPa 0,0 l/m 0 min 0 min 0,0 UV-I 195 W/m 15,4 km/h (3 Bft)
24.03.2013 10:16 -1,3 C -1,0 C 53 % 1014,5 hPa 0,0 l/m 0 min 0 min 0,0 UV-I 193 W/m 10,3 km/h (2 Bft)
24.03.2013 10:18 -1,3 C -1,0 C 53 % 1014,4 hPa 0,0 l/m 0 min 0 min 0,0 UV-I 190 W/m 20,6 km/h (4 Bft)
24.03.2013 10:20 -1,3 C -1,0 C 53 % 1014,4 hPa 0,0 l/m 0 min 0 min 0,0 UV-I 190 W/m 10,3 km/h (2 Bft)
24.03.2013 10:22 -1,2 C -1,0 C 53 % 1014,4 hPa 0,0 l/m 0 min 0 min 0,0 UV-I 190 W/m 23,2 km/h (4 Bft)
24.03.2013 10:24 -1,2 C -1,0 C 52 % 1014,4 hPa 0,0 l/m 0 min 0 min 0,0 UV-I 190 W/m 12,9 km/h (3 Bft)
24.03.2013 10:26 -1,2 C -1,0 C 52 % 1014,4 hPa 0,0 l/m 0 min 0 min 0,0 UV-I 190 W/m 7,7 km/h (2 Bft)
24.03.2013 10:28 -1,2 C -1,0 C 53 % 1014,4 hPa 0,0 l/m 0 min 0 min 0,0 UV-I 190 W/m 15,4 km/h (3 Bft)
24.03.2013 10:30 -1,2 C -1,0 C 53 % 1014,4 hPa 0,0 l/m 0 min 0 min 0,0 UV-I 188 W/m 12,9 km/h (3 Bft)
24.03.2013 10:32 -1,1 C -1,0 C 53 % 1014,4 hPa 0,0 l/m 0 min 0 min 0,0 UV-I 190 W/m 10,3 km/h (2 Bft)
24.03.2013 10:34 -1,1 C -0,4 C 53 % 1014,3 hPa 0,0 l/m 0 min 0 min 0,0 UV-I 193 W/m 15,4 km/h (3 Bft)
24.03.2013 10:36 -1,1 C -0,4 C 53 % 1014,3 hPa 0,0 l/m 0 min 0 min 0,0 UV-I 195 W/m 12,9 km/h (3 Bft)
24.03.2013 10:38 -1,0 C -0,4 C 53 % 1014,4 hPa 0,0 l/m 0 min 0 min 0,0 UV-I 199 W/m 12,9 km/h (3 Bft)
24.03.2013 10:40 -1,0 C -1,0 C 53 % 1014,4 hPa 0,0 l/m 0 min 0 min 0,0 UV-I 204 W/m 12,9 km/h (3 Bft)
24.03.2013 10:42 -1,0 C -1,0 C 52 % 1014,3 hPa 0,0 l/m 0 min 0 min 0,0 UV-I 211 W/m 15,4 km/h (3 Bft)
24.03.2013 10:44 -1,0 C -1,0 C 51 % 1014,3 hPa 0,0 l/m 0 min 0 min 0,0 UV-I 243 W/m 18,0 km/h (3 Bft)
24.03.2013 10:46 -0,9 C -0,4 C 52 % 1014,3 hPa 0,0 l/m 0 min 0 min 0,0 UV-I 253 W/m 15,4 km/h (3 Bft)
24.03.2013 10:48 -0,9 C -0,4 C 52 % 1014,4 hPa 0,0 l/m 0 min 0 min 0,0 UV-I 236 W/m 12,9 km/h (3 Bft)
24.03.2013 10:50 -0,8 C -0,4 C 52 % 1014,3 hPa 0,0 l/m 0 min 0 min 0,0 UV-I 234 W/m 10,3 km/h (2 Bft)
24.03.2013 10:52 -0,8 C -0,4 C 51 % 1014,3 hPa 0,0 l/m 0 min 0 min 0,0 UV-I 223 W/m 15,4 km/h (3 Bft)
24.03.2013 10:54 -0,8 C -0,4 C 50 % 1014,3 hPa 0,0 l/m 0 min 0 min 0,0 UV-I 218 W/m 18,0 km/h (3 Bft)
24.03.2013 10:56 -0,8 C -0,4 C 51 % 1014,3 hPa 0,0 l/m 0 min 0 min 0,0 UV-I 214 W/m 12,9 km/h (3 Bft)
24.03.2013 10:58 -0,7 C -0,4 C 51 % 1014,3 hPa 0,0 l/m 0 min 0 min 0,0 UV-I 206 W/m 10,3 km/h (2 Bft)
24.03.2013 11:00 -0,7 C -0,4 C 50 % 1014,3 hPa 0,0 l/m 0 min 0 min 0,0 UV-I 202 W/m 12,9 km/h (3 Bft)
24.03.2013 11:02 -0,7 C -0,4 C 50 % 1014,1 hPa 0,0 l/m 0 min 0 min 0,0 UV-I 202 W/m 20,6 km/h (4 Bft)
24.03.2013 11:04 -0,6 C -0,4 C 51 % 1014,2 hPa 0,0 l/m 0 min 0 min 0,0 UV-I 207 W/m 18,0 km/h (3 Bft)
24.03.2013 11:06 -0,6 C -0,4 C 50 % 1014,2 hPa 0,0 l/m 0 min 0 min 0,0 UV-I 213 W/m 25,7 km/h (4 Bft)
24.03.2013 11:08 -0,5 C 0,1 C 51 % 1014,1 hPa 0,0 l/m 0 min 0 min 0,0 UV-I 220 W/m 12,9 km/h (3 Bft)
24.03.2013 11:10 -0,5 C 0,1 C 50 % 1014,1 hPa 0,0 l/m 0 min 0 min 0,0 UV-I 225 W/m 25,7 km/h (4 Bft)
24.03.2013 11:12 -0,4 C 0,1 C 51 % 1014,1 hPa 0,0 l/m 0 min 0 min 0,0 UV-I 232 W/m 15,4 km/h (3 Bft)
24.03.2013 11:14 -0,4 C 0,1 C 50 % 1014,2 hPa 0,0 l/m 0 min 0 min 0,0 UV-I 246 W/m 18,0 km/h (3 Bft)
24.03.2013 11:16 -0,3 C 0,1 C 49 % 1014,2 hPa 0,0 l/m 0 min 0 min 0,5 UV-I 265 W/m 20,6 km/h (4 Bft)
24.03.2013 11:18 -0,3 C 0,1 C 50 % 1014,2 hPa 0,0 l/m 0 min 0 min 0,5 UV-I 287 W/m 15,4 km/h (3 Bft)
24.03.2013 11:20 -0,2 C 0,1 C 50 % 1014,1 hPa 0,0 l/m 0 min 0 min 0,5 UV-I 279 W/m 10,3 km/h (2 Bft)
24.03.2013 11:22 -0,2 C 0,7 C 51 % 1014,1 hPa 0,0 l/m 0 min 0 min 0,5 UV-I 274 W/m 15,4 km/h (3 Bft)
24.03.2013 11:24 -0,1 C 0,7 C 50 % 1014,1 hPa 0,0 l/m 0 min 0 min 0,5 UV-I 265 W/m 23,2 km/h (4 Bft)
24.03.2013 11:26 -0,1 C 0,7 C 50 % 1014,1 hPa 0,0 l/m 0 min 0 min 0,5 UV-I 269 W/m 15,4 km/h (3 Bft)
24.03.2013 11:28 0,1 C 0,7 C 49 % 1014,1 hPa 0,0 l/m 0 min 0 min 0,5 UV-I 257 W/m 18,0 km/h (3 Bft)
24.03.2013 11:30 0,1 C 0,7 C 48 % 1014,0 hPa 0,0 l/m 0 min 0 min 0,5 UV-I 244 W/m 20,6 km/h (4 Bft)
24.03.2013 11:32 0,2 C 0,7 C 49 % 1014,1 hPa 0,0 l/m 0 min 0 min 0,5 UV-I 243 W/m 12,9 km/h (3 Bft)
24.03.2013 11:34 0,2 C 0,7 C 48 % 1014,1 hPa 0,0 l/m 0 min 0 min 0,5 UV-I 243 W/m 18,0 km/h (3 Bft)
24.03.2013 11:36 0,2 C 0,7 C 49 % 1014,1 hPa 0,0 l/m 0 min 0 min 0,5 UV-I 237 W/m 18,0 km/h (3 Bft)
24.03.2013 11:38 0,2 C 0,7 C 49 % 1014,1 hPa 0,0 l/m 0 min 0 min 0,5 UV-I 239 W/m 15,4 km/h (3 Bft)
24.03.2013 11:40 0,2 C 0,7 C 49 % 1014,1 hPa 0,0 l/m 0 min 0 min 0,5 UV-I 244 W/m 12,9 km/h (3 Bft)
24.03.2013 11:42 0,3 C 0,7 C 48 % 1014,0 hPa 0,0 l/m 0 min 0 min 0,5 UV-I 255 W/m 12,9 km/h (3 Bft)
24.03.2013 11:44 0,3 C 1,2 C 49 % 1014,1 hPa 0,0 l/m 0 min 0 min 0,5 UV-I 258 W/m 12,9 km/h (3 Bft)
24.03.2013 11:46 0,4 C 1,2 C 48 % 1014,1 hPa 0,0 l/m 0 min 0 min 0,6 UV-I 265 W/m 15,4 km/h (3 Bft)
24.03.2013 11:48 0,4 C 1,2 C 48 % 1014,0 hPa 0,0 l/m 0 min 0 min 0,6 UV-I 271 W/m 12,9 km/h (3 Bft)
24.03.2013 11:50 0,5 C 1,2 C 49 % 1014,0 hPa 0,0 l/m 0 min 0 min 0,7 UV-I 278 W/m 12,9 km/h (3 Bft)
24.03.2013 11:52 0,5 C 1,2 C 48 % 1014,0 hPa 0,0 l/m 0 min 0 min 0,7 UV-I 278 W/m 18,0 km/h (3 Bft)
24.03.2013 11:54 0,6 C 1,2 C 48 % 1013,9 hPa 0,0 l/m 0 min 0 min 0,7 UV-I 309 W/m 12,9 km/h (3 Bft)
24.03.2013 11:56 0,6 C 1,2 C 48 % 1013,8 hPa 0,0 l/m 0 min 0 min 0,8 UV-I 330 W/m 18,0 km/h (3 Bft)
24.03.2013 11:58 0,7 C 1,8 C 48 % 1013,8 hPa 0,0 l/m 0 min 0 min 0,8 UV-I 348 W/m 23,2 km/h (4 Bft)
24.03.2013 12:00 0,8 C 1,2 C 47 % 1013,9 hPa 0,0 l/m 0 min 0 min 0,8 UV-I 346 W/m 20,6 km/h (4 Bft)
24.03.2013 12:02 0,8 C 1,8 C 49 % 1013,8 hPa 0,0 l/m 0 min 0 min 0,8 UV-I 350 W/m 15,4 km/h (3 Bft)
24.03.2013 12:04 0,9 C 1,8 C 48 % 1013,9 hPa 0,0 l/m 2 min 0 min 0,9 UV-I 355 W/m 10,3 km/h (2 Bft)
24.03.2013 12:06 1,1 C 1,8 C 48 % 1013,8 hPa 0,0 l/m 2 min 0 min 0,9 UV-I 357 W/m 18,0 km/h (3 Bft)
24.03.2013 12:08 1,2 C 2,3 C 48 % 1013,8 hPa 0,0 l/m 2 min 0 min 0,9 UV-I 369 W/m 10,3 km/h (2 Bft)
24.03.2013 12:10 1,3 C 2,3 C 47 % 1013,7 hPa 0,0 l/m 2 min 0 min 0,9 UV-I 381 W/m 15,4 km/h (3 Bft)
24.03.2013 12:12 1,3 C 2,3 C 48 % 1013,6 hPa 0,0 l/m 2 min 0 min 1,0 UV-I 388 W/m 10,3 km/h (2 Bft)
24.03.2013 12:14 1,3 C 2,3 C 47 % 1013,6 hPa 0,0 l/m 2 min 0 min 1,0 UV-I 383 W/m 20,6 km/h (4 Bft)
24.03.2013 12:16 1,4 C 2,3 C 47 % 1013,6 hPa 0,0 l/m 2 min 0 min 1,0 UV-I 378 W/m 18,0 km/h (3 Bft)
24.03.2013 12:18 1,5 C 1,8 C 46 % 1013,6 hPa 0,0 l/m 2 min 0 min 1,0 UV-I 399 W/m 28,3 km/h (4 Bft)
24.03.2013 12:20 1,6 C 2,3 C 46 % 1013,6 hPa 0,0 l/m 2 min 0 min 1,0 UV-I 396 W/m 10,3 km/h (2 Bft)
24.03.2013 12:22 1,6 C 2,3 C 46 % 1013,6 hPa 0,0 l/m 2 min 0 min 1,0 UV-I 388 W/m 18,0 km/h (3 Bft)
24.03.2013 12:24 1,7 C 2,3 C 47 % 1013,6 hPa 0,0 l/m 2 min 0 min 1,1 UV-I 388 W/m 18,0 km/h (3 Bft)
24.03.2013 12:26 1,8 C 2,3 C 46 % 1013,6 hPa 0,0 l/m 2 min 0 min 1,1 UV-I 403 W/m 15,4 km/h (3 Bft)
24.03.2013 12:28 1,8 C 2,3 C 45 % 1013,6 hPa 0,0 l/m 2 min 0 min 1,0 UV-I 396 W/m 18,0 km/h (3 Bft)
24.03.2013 12:30 1,8 C 2,3 C 44 % 1013,6 hPa 0,0 l/m 2 min 0 min 1,1 UV-I 392 W/m 30,9 km/h (5 Bft)
24.03.2013 12:32 1,9 C 2,9 C 46 % 1013,5 hPa 0,0 l/m 2 min 0 min 1,0 UV-I 366 W/m 20,6 km/h (4 Bft)
24.03.2013 12:34 1,9 C 2,3 C 45 % 1013,6 hPa 0,0 l/m 2 min 0 min 1,1 UV-I 381 W/m 15,4 km/h (3 Bft)
24.03.2013 12:36 2,0 C 2,3 C 45 % 1013,5 hPa 0,0 l/m 2 min 0 min 1,0 UV-I 376 W/m 23,2 km/h (4 Bft)
24.03.2013 12:38 2,0 C 2,9 C 45 % 1013,5 hPa 0,0 l/m 0 min 0 min 1,0 UV-I 348 W/m 15,4 km/h (3 Bft)
24.03.2013 12:40 2,1 C 2,9 C 45 % 1013,5 hPa 0,0 l/m 2 min 0 min 1,0 UV-I 369 W/m 23,2 km/h (4 Bft)
24.03.2013 12:42 2,1 C 2,3 C 45 % 1013,4 hPa 0,0 l/m 2 min 0 min 1,0 UV-I 360 W/m 18,0 km/h (3 Bft)
24.03.2013 12:44 2,0 C 2,3 C 45 % 1013,5 hPa 0,0 l/m 2 min 0 min 1,0 UV-I 359 W/m 30,9 km/h (5 Bft)
24.03.2013 12:46 2,1 C 2,3 C 45 % 1013,4 hPa 0,0 l/m 0 min 0 min 0,9 UV-I 320 W/m 18,0 km/h (3 Bft)
24.03.2013 12:48 2,1 C 2,9 C 45 % 1013,4 hPa 0,0 l/m 0 min 0 min 0,9 UV-I 330 W/m 15,4 km/h (3 Bft)
24.03.2013 12:50 2,1 C 2,9 C 45 % 1013,4 hPa 0,0 l/m 0 min 0 min 0,8 UV-I 338 W/m 15,4 km/h (3 Bft)
24.03.2013 12:52 2,2 C 2,9 C 45 % 1013,4 hPa 0,0 l/m 0 min 0 min 0,8 UV-I 306 W/m 12,9 km/h (3 Bft)
24.03.2013 12:54 2,2 C 2,9 C 45 % 1013,3 hPa 0,0 l/m 0 min 0 min 0,7 UV-I 304 W/m 12,9 km/h (3 Bft)
24.03.2013 12:56 2,2 C 2,9 C 45 % 1013,3 hPa 0,0 l/m 0 min 0 min 0,7 UV-I 304 W/m 12,9 km/h (3 Bft)
24.03.2013 12:58 2,3 C 2,9 C 45 % 1013,3 hPa 0,0 l/m 0 min 0 min 0,7 UV-I 309 W/m 18,0 km/h (3 Bft)
24.03.2013 13:00 2,3 C 2,9 C 45 % 1013,2 hPa 0,0 l/m 0 min 0 min 0,7 UV-I 309 W/m 15,4 km/h (3 Bft)
24.03.2013 13:02 2,3 C 2,9 C 45 % 1013,2 hPa 0,0 l/m 0 min 0 min 0,8 UV-I 318 W/m 30,9 km/h (5 Bft)
24.03.2013 13:04 2,3 C 2,9 C 44 % 1013,3 hPa 0,0 l/m 0 min 0 min 0,8 UV-I 338 W/m 23,2 km/h (4 Bft)
24.03.2013 13:06 2,4 C 3,4 C 45 % 1013,3 hPa 0,0 l/m 0 min 0 min 0,9 UV-I 355 W/m 15,4 km/h (3 Bft)
24.03.2013 13:08 2,5 C 3,4 C 45 % 1013,2 hPa 0,0 l/m 2 min 0 min 1,0 UV-I 376 W/m 20,6 km/h (4 Bft)
24.03.2013 13:10 2,6 C 3,4 C 44 % 1013,2 hPa 0,0 l/m 2 min 0 min 1,0 UV-I 408 W/m 20,6 km/h (4 Bft)
24.03.2013 13:12 2,6 C 3,4 C 45 % 1013,2 hPa 0,0 l/m 2 min 0 min 1,1 UV-I 434 W/m 20,6 km/h (4 Bft)
24.03.2013 13:14 2,7 C 3,4 C 44 % 1013,2 hPa 0,0 l/m 2 min 0 min 1,2 UV-I 469 W/m 12,9 km/h (3 Bft)
24.03.2013 13:16 2,8 C 4,0 C 45 % 1013,1 hPa 0,0 l/m 2 min 0 min 1,3 UV-I 534 W/m 12,9 km/h (3 Bft)
24.03.2013 13:18 2,9 C 4,0 C 44 % 1013,1 hPa 0,0 l/m 2 min 0 min 1,3 UV-I 513 W/m 15,4 km/h (3 Bft)
24.03.2013 13:20 3,1 C 4,0 C 43 % 1013,0 hPa 0,0 l/m 2 min 0 min 1,4 UV-I 520 W/m 18,0 km/h (3 Bft)
24.03.2013 13:22 3,1 C 4,0 C 43 % 1013,1 hPa 0,0 l/m 2 min 0 min 1,3 UV-I 501 W/m 23,2 km/h (4 Bft)
24.03.2013 13:24 3,2 C 4,0 C 44 % 1013,1 hPa 0,0 l/m 2 min 0 min 1,2 UV-I 441 W/m 12,9 km/h (3 Bft)
24.03.2013 13:26 3,3 C 4,0 C 43 % 1013,0 hPa 0,0 l/m 2 min 0 min 1,3 UV-I 531 W/m 30,9 km/h (5 Bft)
24.03.2013 13:28 3,4 C 4,6 C 44 % 1013,0 hPa 0,0 l/m 2 min 0 min 1,1 UV-I 422 W/m 18,0 km/h (3 Bft)
24.03.2013 13:30 3,5 C 4,0 C 42 % 1013,0 hPa 0,0 l/m 2 min 0 min 1,2 UV-I 417 W/m 28,3 km/h (4 Bft)
24.03.2013 13:32 3,6 C 4,0 C 43 % 1013,0 hPa 0,0 l/m 2 min 0 min 1,3 UV-I 448 W/m 12,9 km/h (3 Bft)
24.03.2013 13:34 3,6 C 4,0 C 42 % 1013,0 hPa 0,0 l/m 2 min 0 min 1,2 UV-I 439 W/m 12,9 km/h (3 Bft)
24.03.2013 13:36 3,7 C 4,0 C 43 % 1013,1 hPa 0,0 l/m 2 min 0 min 1,3 UV-I 457 W/m 18,0 km/h (3 Bft)
24.03.2013 13:38 3,7 C 4,0 C 42 % 1013,1 hPa 0,0 l/m 2 min 0 min 1,1 UV-I 432 W/m 15,4 km/h (3 Bft)
24.03.2013 13:40 3,7 C 3,4 C 42 % 1012,9 hPa 0,0 l/m 0 min 0 min 0,9 UV-I 316 W/m 23,2 km/h (4 Bft)
24.03.2013 13:42 3,6 C 3,4 C 42 % 1013,0 hPa 0,0 l/m 0 min 0 min 0,8 UV-I 288 W/m 23,2 km/h (4 Bft)
24.03.2013 13:44 3,5 C 3,4 C 41 % 1013,0 hPa 0,0 l/m 0 min 0 min 0,8 UV-I 276 W/m 23,2 km/h (4 Bft)
24.03.2013 13:46 3,4 C 3,4 C 42 % 1013,0 hPa 0,0 l/m 0 min 0 min 0,8 UV-I 281 W/m 20,6 km/h (4 Bft)
24.03.2013 13:48 3,3 C 2,9 C 41 % 1013,0 hPa 0,0 l/m 0 min 0 min 0,8 UV-I 276 W/m 25,7 km/h (4 Bft)
24.03.2013 13:50 3,3 C 3,4 C 42 % 1013,0 hPa 0,0 l/m 0 min 0 min 0,7 UV-I 248 W/m 18,0 km/h (3 Bft)
24.03.2013 13:52 3,2 C 3,4 C 42 % 1012,9 hPa 0,0 l/m 0 min 0 min 0,5 UV-I 229 W/m 18,0 km/h (3 Bft)
24.03.2013 13:54 3,2 C 3,4 C 42 % 1012,9 hPa 0,0 l/m 0 min 0 min 0,5 UV-I 216 W/m 15,4 km/h (3 Bft)
24.03.2013 13:56 3,2 C 2,9 C 42 % 1012,9 hPa 0,0 l/m 0 min 0 min 0,0 UV-I 214 W/m 33,5 km/h (5 Bft)
24.03.2013 13:58 3,1 C 3,4 C 42 % 1012,9 hPa 0,0 l/m 0 min 0 min 0,0 UV-I 227 W/m 10,3 km/h (2 Bft)
24.03.2013 14:00 3,1 C 2,9 C 43 % 1012,9 hPa 0,0 l/m 0 min 0 min 0,0 UV-I 229 W/m 15,4 km/h (3 Bft)
24.03.2013 14:02 3,1 C 2,9 C 43 % 1012,9 hPa 0,0 l/m 0 min 0 min 0,0 UV-I 214 W/m 18,0 km/h (3 Bft)
24.03.2013 14:04 3,0 C 2,9 C 42 % 1012,9 hPa 0,0 l/m 0 min 0 min 0,0 UV-I 211 W/m 20,6 km/h (4 Bft)
24.03.2013 14:06 3,0 C 2,9 C 43 % 1012,9 hPa 0,0 l/m 0 min 0 min 0,0 UV-I 206 W/m 20,6 km/h (4 Bft)
24.03.2013 14:08 3,0 C 2,9 C 43 % 1012,9 hPa 0,0 l/m 0 min 0 min 0,0 UV-I 206 W/m 20,6 km/h (4 Bft)
24.03.2013 14:10 3,0 C 2,9 C 43 % 1012,9 hPa 0,0 l/m 0 min 0 min 0,0 UV-I 211 W/m 30,9 km/h (5 Bft)
24.03.2013 14:12 3,0 C 2,9 C 42 % 1012,9 hPa 0,0 l/m 0 min 0 min 0,0 UV-I 220 W/m 23,2 km/h (4 Bft)
24.03.2013 14:14 3,0 C 2,9 C 42 % 1012,9 hPa 0,0 l/m 0 min 0 min 0,0 UV-I 232 W/m 23,2 km/h (4 Bft)
24.03.2013 14:16 3,0 C 3,4 C 42 % 1012,9 hPa 0,0 l/m 0 min 0 min 0,0 UV-I 236 W/m 18,0 km/h (3 Bft)
24.03.2013 14:18 2,9 C 3,4 C 42 % 1012,9 hPa 0,0 l/m 0 min 0 min 0,5 UV-I 237 W/m 18,0 km/h (3 Bft)
24.03.2013 14:20 2,9 C 3,4 C 42 % 1012,8 hPa 0,0 l/m 0 min 0 min 0,0 UV-I 244 W/m 18,0 km/h (3 Bft)
24.03.2013 14:22 2,9 C 3,4 C 42 % 1012,9 hPa 0,0 l/m 0 min 0 min 0,5 UV-I 250 W/m 15,4 km/h (3 Bft)
24.03.2013 14:24 2,9 C 3,4 C 43 % 1012,9 hPa 0,0 l/m 0 min 0 min 0,5 UV-I 246 W/m 23,2 km/h (4 Bft)
24.03.2013 14:26 3,0 C 3,4 C 43 % 1012,8 hPa 0,0 l/m 0 min 0 min 0,0 UV-I 221 W/m 18,0 km/h (3 Bft)
24.03.2013 14:28 3,0 C 3,4 C 43 % 1012,9 hPa 0,0 l/m 0 min 0 min 0,0 UV-I 213 W/m 12,9 km/h (3 Bft)
24.03.2013 14:30 3,0 C 3,4 C 42 % 1012,9 hPa 0,0 l/m 0 min 0 min 0,0 UV-I 216 W/m 15,4 km/h (3 Bft)
24.03.2013 14:32 3,1 C 3,4 C 42 % 1012,9 hPa 0,0 l/m 0 min 0 min 0,0 UV-I 213 W/m 23,2 km/h (4 Bft)
24.03.2013 14:34 3,1 C 3,4 C 43 % 1012,8 hPa 0,0 l/m 0 min 0 min 0,0 UV-I 211 W/m 15,4 km/h (3 Bft)
24.03.2013 14:36 3,1 C 3,4 C 43 % 1012,8 hPa 0,0 l/m 0 min 0 min 0,0 UV-I 195 W/m 12,9 km/h (3 Bft)
24.03.2013 14:38 3,1 C 3,4 C 42 % 1012,8 hPa 0,0 l/m 0 min 0 min 0,0 UV-I 192 W/m 23,2 km/h (4 Bft)
24.03.2013 14:40 3,1 C 2,9 C 41 % 1012,7 hPa 0,0 l/m 0 min 0 min 0,0 UV-I 195 W/m 15,4 km/h (3 Bft)
24.03.2013 14:42 3,0 C 2,9 C 42 % 1012,7 hPa 0,0 l/m 0 min 0 min 0,0 UV-I 195 W/m 18,0 km/h (3 Bft)
24.03.2013 14:44 3,0 C 2,9 C 42 % 1012,7 hPa 0,0 l/m 0 min 0 min 0,0 UV-I 197 W/m 20,6 km/h (4 Bft)
24.03.2013 14:46 2,9 C 2,9 C 42 % 1012,6 hPa 0,0 l/m 0 min 0 min 0,0 UV-I 195 W/m 15,4 km/h (3 Bft)
24.03.2013 14:48 2,9 C 2,9 C 42 % 1012,7 hPa 0,0 l/m 0 min 0 min 0,0 UV-I 185 W/m 15,4 km/h (3 Bft)
24.03.2013 14:50 2,9 C 2,9 C 42 % 1012,7 hPa 0,0 l/m 0 min 0 min 0,0 UV-I 172 W/m 10,3 km/h (2 Bft)
24.03.2013 14:52 3,0 C 2,9 C 43 % 1012,7 hPa 0,0 l/m 0 min 0 min 0,0 UV-I 169 W/m 25,7 km/h (4 Bft)
24.03.2013 14:54 3,0 C 2,9 C 42 % 1012,6 hPa 0,0 l/m 0 min 0 min 0,0 UV-I 167 W/m 15,4 km/h (3 Bft)
24.03.2013 14:56 3,0 C 2,9 C 42 % 1012,6 hPa 0,0 l/m 0 min 0 min 0,0 UV-I 172 W/m 20,6 km/h (4 Bft)
24.03.2013 14:58 3,0 C 2,9 C 42 % 1012,6 hPa 0,0 l/m 0 min 0 min 0,0 UV-I 176 W/m 10,3 km/h (2 Bft)
24.03.2013 15:00 3,1 C 2,9 C 43 % 1012,6 hPa 0,0 l/m 0 min 0 min 0,0 UV-I 183 W/m 12,9 km/h (3 Bft)
24.03.2013 15:02 3,1 C 2,9 C 42 % 1012,6 hPa 0,0 l/m 0 min 0 min 0,0 UV-I 181 W/m 18,0 km/h (3 Bft)
24.03.2013 15:04 3,1 C 2,9 C 42 % 1012,6 hPa 0,0 l/m 0 min 0 min 0,0 UV-I 172 W/m 18,0 km/h (3 Bft)
24.03.2013 15:06 3,1 C 2,9 C 42 % 1012,6 hPa 0,0 l/m 0 min 0 min 0,0 UV-I 156 W/m 18,0 km/h (3 Bft)
24.03.2013 15:08 3,1 C 2,9 C 42 % 1012,6 hPa 0,0 l/m 0 min 0 min 0,0 UV-I 137 W/m 23,2 km/h (4 Bft)
24.03.2013 15:10 3,1 C 2,9 C 42 % 1012,6 hPa 0,0 l/m 0 min 0 min 0,0 UV-I 134 W/m 12,9 km/h (3 Bft)
24.03.2013 15:12 3,0 C 2,9 C 42 % 1012,5 hPa 0,0 l/m 0 min 0 min 0,0 UV-I 130 W/m 10,3 km/h (2 Bft)
24.03.2013 15:14 3,0 C 2,9 C 43 % 1012,6 hPa 0,0 l/m 0 min 0 min 0,0 UV-I 125 W/m 28,3 km/h (4 Bft)
24.03.2013 15:16 3,0 C 2,3 C 42 % 1012,6 hPa 0,0 l/m 0 min 0 min 0,0 UV-I 121 W/m 15,4 km/h (3 Bft)
24.03.2013 15:18 2,9 C 2,3 C 42 % 1012,6 hPa 0,0 l/m 0 min 0 min 0,0 UV-I 114 W/m 23,2 km/h (4 Bft)
24.03.2013 15:20 2,9 C 2,3 C 42 % 1012,4 hPa 0,0 l/m 0 min 0 min 0,0 UV-I 113 W/m 15,4 km/h (3 Bft)
24.03.2013 15:22 2,9 C 2,3 C 42 % 1012,5 hPa 0,0 l/m 0 min 0 min 0,0 UV-I 116 W/m 12,9 km/h (3 Bft)
24.03.2013 15:24 2,8 C 2,3 C 43 % 1012,4 hPa 0,0 l/m 0 min 0 min 0,0 UV-I 123 W/m 15,4 km/h (3 Bft)
24.03.2013 15:26 2,8 C 2,3 C 42 % 1012,4 hPa 0,0 l/m 0 min 0 min 0,0 UV-I 128 W/m 15,4 km/h (3 Bft)
24.03.2013 15:28 2,8 C 2,3 C 42 % 1012,4 hPa 0,0 l/m 0 min 0 min 0,0 UV-I 141 W/m 18,0 km/h (3 Bft)
24.03.2013 15:30 2,8 C 2,3 C 43 % 1012,5 hPa 0,0 l/m 0 min 0 min 0,0 UV-I 158 W/m 23,2 km/h (4 Bft)
24.03.2013 15:32 2,8 C 2,3 C 42 % 1012,5 hPa 0,0 l/m 0 min 0 min 0,0 UV-I 162 W/m 18,0 km/h (3 Bft)
24.03.2013 15:34 2,8 C 2,9 C 41 % 1012,4 hPa 0,0 l/m 0 min 0 min 0,0 UV-I 165 W/m 18,0 km/h (3 Bft)
24.03.2013 15:36 2,8 C 2,9 C 41 % 1012,5 hPa 0,0 l/m 0 min 0 min 0,0 UV-I 172 W/m 18,0 km/h (3 Bft)
24.03.2013 15:38 2,9 C 2,9 C 41 % 1012,5 hPa 0,0 l/m 0 min 0 min 0,0 UV-I 179 W/m 12,9 km/h (3 Bft)
24.03.2013 15:40 2,9 C 2,9 C 42 % 1012,4 hPa 0,0 l/m 0 min 0 min 0,0 UV-I 185 W/m 23,2 km/h (4 Bft)
24.03.2013 15:42 2,9 C 2,9 C 42 % 1012,4 hPa 0,0 l/m 0 min 0 min 0,0 UV-I 197 W/m 18,0 km/h (3 Bft)
24.03.2013 15:44 3,0 C 2,9 C 41 % 1012,4 hPa 0,0 l/m 0 min 0 min 0,0 UV-I 190 W/m 12,9 km/h (3 Bft)
24.03.2013 15:46 3,1 C 3,4 C 42 % 1012,4 hPa 0,0 l/m 0 min 0 min 0,0 UV-I 183 W/m 10,3 km/h (2 Bft)
24.03.2013 15:48 3,1 C 3,4 C 42 % 1012,5 hPa 0,0 l/m 0 min 0 min 0,0 UV-I 176 W/m 15,4 km/h (3 Bft)
24.03.2013 15:50 3,1 C 2,9 C 41 % 1012,5 hPa 0,0 l/m 0 min 0 min 0,0 UV-I 171 W/m 18,0 km/h (3 Bft)
24.03.2013 15:52 3,2 C 3,4 C 41 % 1012,5 hPa 0,0 l/m 0 min 0 min 0,0 UV-I 169 W/m 18,0 km/h (3 Bft)
24.03.2013 15:54 3,2 C 2,9 C 40 % 1012,5 hPa 0,0 l/m 0 min 0 min 0,0 UV-I 174 W/m 30,9 km/h (5 Bft)
24.03.2013 15:56 3,2 C 2,9 C 41 % 1012,4 hPa 0,0 l/m 0 min 0 min 0,0 UV-I 178 W/m 30,9 km/h (5 Bft)
24.03.2013 15:58 3,2 C 2,9 C 41 % 1012,4 hPa 0,0 l/m 0 min 0 min 0,0 UV-I 174 W/m 18,0 km/h (3 Bft)
24.03.2013 16:00 3,2 C 2,9 C 40 % 1012,3 hPa 0,0 l/m 0 min 0 min 0,0 UV-I 162 W/m 18,0 km/h (3 Bft)
24.03.2013 16:02 3,2 C 2,9 C 41 % 1012,4 hPa 0,0 l/m 0 min 0 min 0,0 UV-I 153 W/m 15,4 km/h (3 Bft)
24.03.2013 16:04 3,2 C 2,9 C 41 % 1012,3 hPa 0,0 l/m 0 min 0 min 0,0 UV-I 144 W/m 20,6 km/h (4 Bft)
24.03.2013 16:06 3,2 C 2,9 C 41 % 1012,3 hPa 0,0 l/m 0 min 0 min 0,0 UV-I 132 W/m 20,6 km/h (4 Bft)
24.03.2013 16:08 3,2 C 2,9 C 40 % 1012,4 hPa 0,0 l/m 0 min 0 min 0,0 UV-I 127 W/m 7,7 km/h (2 Bft)
24.03.2013 16:10 3,2 C 2,9 C 42 % 1012,4 hPa 0,0 l/m 0 min 0 min 0,0 UV-I 123 W/m 12,9 km/h (3 Bft)
24.03.2013 16:12 3,2 C 2,9 C 42 % 1012,4 hPa 0,0 l/m 0 min 0 min 0,0 UV-I 120 W/m 12,9 km/h (3 Bft)
24.03.2013 16:14 3,2 C 2,9 C 41 % 1012,5 hPa 0,0 l/m 0 min 0 min 0,0 UV-I 118 W/m 23,2 km/h (4 Bft)
24.03.2013 16:16 3,2 C 2,3 C 40 % 1012,5 hPa 0,0 l/m 0 min 0 min 0,0 UV-I 114 W/m 15,4 km/h (3 Bft)
24.03.2013 16:18 3,2 C 2,3 C 40 % 1012,5 hPa 0,0 l/m 0 min 0 min 0,0 UV-I 111 W/m 15,4 km/h (3 Bft)
24.03.2013 16:20 3,1 C 2,3 C 40 % 1012,4 hPa 0,0 l/m 0 min 0 min 0,0 UV-I 107 W/m 18,0 km/h (3 Bft)
24.03.2013 16:22 3,1 C 2,3 C 40 % 1012,5 hPa 0,0 l/m 0 min 0 min 0,0 UV-I 105 W/m 12,9 km/h (3 Bft)
24.03.2013 16:24 3,0 C 2,3 C 40 % 1012,6 hPa 0,0 l/m 0 min 0 min 0,0 UV-I 102 W/m 23,2 km/h (4 Bft)
24.03.2013 16:26 3,0 C 2,3 C 41 % 1012,5 hPa 0,0 l/m 0 min 0 min 0,0 UV-I 100 W/m 20,6 km/h (4 Bft)
24.03.2013 16:28 2,9 C 2,3 C 40 % 1012,6 hPa 0,0 l/m 0 min 0 min 0,0 UV-I 98 W/m 23,2 km/h (4 Bft)
24.03.2013 16:30 2,9 C 2,3 C 40 % 1012,7 hPa 0,0 l/m 0 min 0 min 0,0 UV-I 93 W/m 23,2 km/h (4 Bft)
24.03.2013 16:32 2,9 C 2,3 C 41 % 1012,6 hPa 0,0 l/m 0 min 0 min 0,0 UV-I 91 W/m 10,3 km/h (2 Bft)
24.03.2013 16:34 2,9 C 2,3 C 41 % 1012,6 hPa 0,0 l/m 0 min 0 min 0,0 UV-I 88 W/m 15,4 km/h (3 Bft)
24.03.2013 16:36 2,9 C 2,3 C 41 % 1012,7 hPa 0,0 l/m 0 min 0 min 0,0 UV-I 83 W/m 15,4 km/h (3 Bft)
24.03.2013 16:38 2,9 C 2,3 C 42 % 1012,7 hPa 0,0 l/m 0 min 0 min 0,0 UV-I 81 W/m 10,3 km/h (2 Bft)
24.03.2013 16:40 2,8 C 2,3 C 41 % 1012,7 hPa 0,0 l/m 0 min 0 min 0,0 UV-I 77 W/m 10,3 km/h (2 Bft)
24.03.2013 16:42 2,8 C 2,3 C 41 % 1012,7 hPa 0,0 l/m 0 min 0 min 0,0 UV-I 76 W/m 18,0 km/h (3 Bft)
24.03.2013 16:44 2,8 C 1,8 C 41 % 1012,6 hPa 0,0 l/m 0 min 0 min 0,0 UV-I 74 W/m 15,4 km/h (3 Bft)
24.03.2013 16:46 2,8 C 1,8 C 40 % 1012,6 hPa 0,0 l/m 0 min 0 min 0,0 UV-I 72 W/m 20,6 km/h (4 Bft)
24.03.2013 16:48 2,7 C 1,8 C 40 % 1012,7 hPa 0,0 l/m 0 min 0 min 0,0 UV-I 72 W/m 18,0 km/h (3 Bft)
24.03.2013 16:50 2,7 C 1,8 C 40 % 1012,6 hPa 0,0 l/m 0 min 0 min 0,0 UV-I 72 W/m 18,0 km/h (3 Bft)
24.03.2013 16:52 2,7 C 1,8 C 40 % 1012,6 hPa 0,0 l/m 0 min 0 min 0,0 UV-I 74 W/m 23,2 km/h (4 Bft)
24.03.2013 16:54 2,6 C 1,8 C 40 % 1012,6 hPa 0,0 l/m 0 min 0 min 0,0 UV-I 77 W/m 15,4 km/h (3 Bft)
24.03.2013 16:56 2,6 C 1,8 C 40 % 1012,6 hPa 0,0 l/m 0 min 0 min 0,0 UV-I 81 W/m 18,0 km/h (3 Bft)
24.03.2013 16:58 2,6 C 1,8 C 41 % 1012,6 hPa 0,0 l/m 0 min 0 min 0,0 UV-I 84 W/m 12,9 km/h (3 Bft)
24.03.2013 17:00 2,6 C 1,8 C 41 % 1012,7 hPa 0,0 l/m 0 min 0 min 0,0 UV-I 86 W/m 23,2 km/h (4 Bft)
24.03.2013 17:02 2,5 C 1,8 C 40 % 1012,6 hPa 0,0 l/m 0 min 0 min 0,0 UV-I 86 W/m 23,2 km/h (4 Bft)
24.03.2013 17:04 2,5 C 1,8 C 40 % 1012,5 hPa 0,0 l/m 0 min 0 min 0,0 UV-I 84 W/m 18,0 km/h (3 Bft)
24.03.2013 17:06 2,5 C 1,8 C 40 % 1012,6 hPa 0,0 l/m 0 min 0 min 0,0 UV-I 83 W/m 20,6 km/h (4 Bft)
24.03.2013 17:08 2,4 C 1,8 C 40 % 1012,5 hPa 0,0 l/m 0 min 0 min 0,0 UV-I 83 W/m 20,6 km/h (4 Bft)
24.03.2013 17:10 2,4 C 1,8 C 40 % 1012,5 hPa 0,0 l/m 0 min 0 min 0,0 UV-I 77 W/m 20,6 km/h (4 Bft)
24.03.2013 17:12 2,4 C 1,8 C 40 % 1012,4 hPa 0,0 l/m 0 min 0 min 0,0 UV-I 76 W/m 18,0 km/h (3 Bft)
24.03.2013 17:14 2,4 C 1,8 C 40 % 1012,5 hPa 0,0 l/m 0 min 0 min 0,0 UV-I 72 W/m 20,6 km/h (4 Bft)
24.03.2013 17:16 2,4 C 1,8 C 41 % 1012,4 hPa 0,0 l/m 0 min 0 min 0,0 UV-I 65 W/m 23,2 km/h (4 Bft)
24.03.2013 17:18 2,4 C 1,8 C 41 % 1012,3 hPa 0,0 l/m 0 min 0 min 0,0 UV-I 62 W/m 18,0 km/h (3 Bft)
24.03.2013 17:20 2,4 C 1,2 C 40 % 1012,4 hPa 0,0 l/m 0 min 0 min 0,0 UV-I 58 W/m 30,9 km/h (5 Bft)
24.03.2013 17:22 2,3 C 1,2 C 41 % 1012,5 hPa 0,0 l/m 0 min 0 min 0,0 UV-I 54 W/m 12,9 km/h (3 Bft)
24.03.2013 17:24 2,3 C 1,2 C 40 % 1012,5 hPa 0,0 l/m 0 min 0 min 0,0 UV-I 54 W/m 12,9 km/h (3 Bft)
24.03.2013 17:26 2,3 C 1,2 C 41 % 1012,5 hPa 0,0 l/m 0 min 0 min 0,0 UV-I 53 W/m 43,8 km/h (6 Bft)
24.03.2013 17:28 2,3 C 1,2 C 41 % 1012,6 hPa 0,0 l/m 0 min 0 min 0,0 UV-I 51 W/m 25,7 km/h (4 Bft)
24.03.2013 17:30 2,3 C 1,2 C 41 % 1012,5 hPa 0,0 l/m 0 min 0 min 0,0 UV-I 49 W/m 20,6 km/h (4 Bft)
24.03.2013 17:32 2,3 C 1,2 C 40 % 1012,5 hPa 0,0 l/m 0 min 0 min 0,0 UV-I 49 W/m 10,3 km/h (2 Bft)
24.03.2013 17:34 2,3 C 1,2 C 41 % 1012,5 hPa 0,0 l/m 0 min 0 min 0,0 UV-I 47 W/m 15,4 km/h (3 Bft)
24.03.2013 17:36 2,3 C 1,2 C 41 % 1012,5 hPa 0,0 l/m 0 min 0 min 0,0 UV-I 47 W/m 23,2 km/h (4 Bft)
24.03.2013 17:38 2,2 C 1,2 C 41 % 1012,6 hPa 0,0 l/m 0 min 0 min 0,0 UV-I 46 W/m 15,4 km/h (3 Bft)
24.03.2013 17:40 2,2 C 1,2 C 41 % 1012,6 hPa 0,0 l/m 0 min 0 min 0,0 UV-I 47 W/m 7,7 km/h (2 Bft)
24.03.2013 17:42 2,2 C 1,2 C 41 % 1012,6 hPa 0,0 l/m 0 min 0 min 0,0 UV-I 47 W/m 23,2 km/h (4 Bft)
24.03.2013 17:44 2,2 C 1,2 C 41 % 1012,6 hPa 0,0 l/m 0 min 0 min 0,0 UV-I 47 W/m 23,2 km/h (4 Bft)
24.03.2013 17:46 2,2 C 1,2 C 41 % 1012,5 hPa 0,0 l/m 0 min 0 min 0,0 UV-I 46 W/m 28,3 km/h (4 Bft)
24.03.2013 17:48 2,2 C 1,2 C 42 % 1012,6 hPa 0,0 l/m 0 min 0 min 0,0 UV-I 46 W/m 18,0 km/h (3 Bft)
24.03.2013 17:50 2,1 C 1,2 C 42 % 1012,6 hPa 0,0 l/m 0 min 0 min 0,0 UV-I 44 W/m 20,6 km/h (4 Bft)
24.03.2013 17:52 2,1 C 1,2 C 41 % 1012,7 hPa 0,0 l/m 0 min 0 min 0,0 UV-I 40 W/m 18,0 km/h (3 Bft)
24.03.2013 17:54 2,1 C 1,2 C 42 % 1012,6 hPa 0,0 l/m 0 min 0 min 0,0 UV-I 37 W/m 15,4 km/h (3 Bft)
24.03.2013 17:56 2,1 C 1,2 C 41 % 1012,6 hPa 0,0 l/m 0 min 0 min 0,0 UV-I 35 W/m 20,6 km/h (4 Bft)
24.03.2013 17:58 2,1 C 1,2 C 42 % 1012,6 hPa 0,0 l/m 0 min 0 min 0,0 UV-I 33 W/m 25,7 km/h (4 Bft)
24.03.2013 18:00 2,0 C 0,7 C 42 % 1012,7 hPa 0,0 l/m 0 min 0 min 0,0 UV-I 32 W/m 20,6 km/h (4 Bft)
24.03.2013 18:02 2,0 C 0,7 C 42 % 1012,7 hPa 0,0 l/m 0 min 0 min 0,0 UV-I 28 W/m 15,4 km/h (3 Bft)
24.03.2013 18:04 2,0 C 0,7 C 42 % 1012,7 hPa 0,0 l/m 0 min 0 min 0,0 UV-I 26 W/m 20,6 km/h (4 Bft)
24.03.2013 18:06 1,9 C 0,7 C 42 % 1012,8 hPa 0,0 l/m 0 min 0 min 0,0 UV-I 25 W/m 18,0 km/h (3 Bft)
24.03.2013 18:08 1,9 C 0,7 C 42 % 1012,8 hPa 0,0 l/m 0 min 0 min 0,0 UV-I 21 W/m 20,6 km/h (4 Bft)
24.03.2013 18:10 1,9 C 0,7 C 42 % 1012,7 hPa 0,0 l/m 0 min 0 min 0,0 UV-I 19 W/m 18,0 km/h (3 Bft)
24.03.2013 18:12 1,8 C 0,7 C 41 % 1012,7 hPa 0,0 l/m 0 min 0 min 0,0 UV-I 19 W/m 28,3 km/h (4 Bft)
24.03.2013 18:14 1,8 C 0,7 C 42 % 1012,8 hPa 0,0 l/m 0 min 0 min 0,0 UV-I 18 W/m 30,9 km/h (5 Bft)
24.03.2013 18:16 1,8 C 0,7 C 43 % 1012,8 hPa 0,0 l/m 0 min 0 min 0,0 UV-I 16 W/m 20,6 km/h (4 Bft)
24.03.2013 18:18 1,8 C 0,7 C 43 % 1012,8 hPa 0,0 l/m 0 min 0 min 0,0 UV-I 14 W/m 15,4 km/h (3 Bft)
24.03.2013 18:20 1,8 C 0,7 C 42 % 1012,8 hPa 0,0 l/m 0 min 0 min 0,0 UV-I 14 W/m 25,7 km/h (4 Bft)
24.03.2013 18:22 1,8 C 0,7 C 43 % 1012,9 hPa 0,0 l/m 0 min 0 min 0,0 UV-I 12 W/m 10,3 km/h (2 Bft)
24.03.2013 18:24 1,8 C 0,7 C 44 % 1012,8 hPa 0,0 l/m 0 min 0 min 0,0 UV-I 12 W/m 12,9 km/h (3 Bft)
24.03.2013 18:26 1,7 C 0,7 C 43 % 1012,8 hPa 0,0 l/m 0 min 0 min 0,0 UV-I 11 W/m 30,9 km/h (5 Bft)
24.03.2013 18:28 1,7 C 0,7 C 44 % 1013,0 hPa 0,0 l/m 0 min 0 min 0,0 UV-I 11 W/m 23,2 km/h (4 Bft)
24.03.2013 18:30 1,7 C 0,7 C 43 % 1012,9 hPa 0,0 l/m 0 min 0 min 0,0 UV-I 11 W/m 18,0 km/h (3 Bft)
24.03.2013 18:32 1,7 C 0,7 C 43 % 1013,0 hPa 0,0 l/m 0 min 0 min 0,0 UV-I 9 W/m 18,0 km/h (3 Bft)
24.03.2013 18:34 1,7 C 0,1 C 43 % 1012,9 hPa 0,0 l/m 0 min 0 min 0,0 UV-I 9 W/m 23,2 km/h (4 Bft)
24.03.2013 18:36 1,7 C 0,1 C 43 % 1013,0 hPa 0,0 l/m 0 min 0 min 0,0 UV-I 7 W/m 23,2 km/h (4 Bft)
24.03.2013 18:38 1,6 C 0,1 C 43 % 1013,0 hPa 0,0 l/m 0 min 0 min 0,0 UV-I 7 W/m 15,4 km/h (3 Bft)
24.03.2013 18:40 1,6 C 0,1 C 44 % 1013,0 hPa 0,0 l/m 0 min 0 min 0,0 UV-I 7 W/m 15,4 km/h (3 Bft)
24.03.2013 18:42 1,6 C 0,1 C 43 % 1013,1 hPa 0,0 l/m 0 min 0 min 0,0 UV-I 5 W/m 23,2 km/h (4 Bft)
24.03.2013 18:44 1,6 C 0,1 C 44 % 1013,1 hPa 0,0 l/m 0 min 0 min 0,0 UV-I 5 W/m 15,4 km/h (3 Bft)
24.03.2013 18:46 1,6 C 0,1 C 44 % 1013,1 hPa 0,0 l/m 0 min 0 min 0,0 UV-I 5 W/m 43,8 km/h (6 Bft)
24.03.2013 18:48 1,5 C 0,1 C 44 % 1013,1 hPa 0,0 l/m 0 min 0 min 0,0 UV-I 0 W/m 20,6 km/h (4 Bft)
24.03.2013 18:50 1,5 C 0,1 C 44 % 1013,1 hPa 0,0 l/m 0 min 0 min 0,0 UV-I 0 W/m 20,6 km/h (4 Bft)
24.03.2013 18:52 1,4 C 0,1 C 44 % 1013,2 hPa 0,0 l/m 0 min 0 min 0,0 UV-I 0 W/m 15,4 km/h (3 Bft)
24.03.2013 18:54 1,4 C 0,1 C 44 % 1013,2 hPa 0,0 l/m 0 min 0 min 0,0 UV-I 0 W/m 15,4 km/h (3 Bft)
24.03.2013 18:56 1,4 C 0,1 C 44 % 1013,3 hPa 0,0 l/m 0 min 0 min 0,0 UV-I 0 W/m 12,9 km/h (3 Bft)
24.03.2013 18:58 1,3 C 0,1 C 44 % 1013,3 hPa 0,0 l/m 0 min 0 min 0,0 UV-I 0 W/m 33,5 km/h (5 Bft)
24.03.2013 19:00 1,3 C 0,1 C 45 % 1013,3 hPa 0,0 l/m 0 min 0 min 0,0 UV-I 0 W/m 15,4 km/h (3 Bft)
24.03.2013 19:02 1,3 C 0,1 C 45 % 1013,4 hPa 0,0 l/m 0 min 0 min 0,0 UV-I 0 W/m 12,9 km/h (3 Bft)
24.03.2013 19:04 1,3 C 0,1 C 45 % 1013,4 hPa 0,0 l/m 0 min 0 min 0,0 UV-I 0 W/m 12,9 km/h (3 Bft)
24.03.2013 19:06 1,3 C 0,1 C 45 % 1013,4 hPa 0,0 l/m 0 min 0 min 0,0 UV-I 0 W/m 23,2 km/h (4 Bft)
24.03.2013 19:08 1,3 C 0,1 C 45 % 1013,5 hPa 0,0 l/m 0 min 0 min 0,0 UV-I 0 W/m 18,0 km/h (3 Bft)
24.03.2013 19:10 1,3 C 0,1 C 45 % 1013,5 hPa 0,0 l/m 0 min 0 min 0,0 UV-I 0 W/m 23,2 km/h (4 Bft)
24.03.2013 19:12 1,3 C 0,1 C 45 % 1013,5 hPa 0,0 l/m 0 min 0 min 0,0 UV-I 0 W/m 15,4 km/h (3 Bft)
24.03.2013 19:14 1,3 C 0,1 C 45 % 1013,6 hPa 0,0 l/m 0 min 0 min 0,0 UV-I 0 W/m 23,2 km/h (4 Bft)
24.03.2013 19:16 1,3 C 0,1 C 45 % 1013,6 hPa 0,0 l/m 0 min 0 min 0,0 UV-I 0 W/m 12,9 km/h (3 Bft)
24.03.2013 19:18 1,3 C 0,1 C 46 % 1013,6 hPa 0,0 l/m 0 min 0 min 0,0 UV-I 0 W/m 12,9 km/h (3 Bft)
24.03.2013 19:20 1,3 C 0,1 C 46 % 1013,6 hPa 0,0 l/m 0 min 0 min 0,0 UV-I 0 W/m 23,2 km/h (4 Bft)
24.03.2013 19:22 1,3 C 0,1 C 46 % 1013,6 hPa 0,0 l/m 0 min 0 min 0,0 UV-I 0 W/m 20,6 km/h (4 Bft)
24.03.2013 19:24 1,3 C 0,1 C 47 % 1013,5 hPa 0,0 l/m 0 min 0 min 0,0 UV-I 0 W/m 7,7 km/h (2 Bft)
24.03.2013 19:26 1,2 C 0,1 C 47 % 1013,6 hPa 0,0 l/m 0 min 0 min 0,0 UV-I 0 W/m 23,2 km/h (4 Bft)
24.03.2013 19:28 1,2 C 0,1 C 46 % 1013,6 hPa 0,0 l/m 0 min 0 min 0,0 UV-I 0 W/m 25,7 km/h (4 Bft)
24.03.2013 19:30 1,2 C -0,4 C 47 % 1013,7 hPa 0,0 l/m 0 min 0 min 0,0 UV-I 0 W/m 12,9 km/h (3 Bft)
24.03.2013 19:32 1,2 C -0,4 C 46 % 1013,7 hPa 0,0 l/m 0 min 0 min 0,0 UV-I 0 W/m 25,7 km/h (4 Bft)
24.03.2013 19:34 1,1 C -0,4 C 46 % 1013,7 hPa 0,0 l/m 0 min 0 min 0,0 UV-I 0 W/m 20,6 km/h (4 Bft)
24.03.2013 19:36 1,1 C -0,4 C 46 % 1013,7 hPa 0,0 l/m 0 min 0 min 0,0 UV-I 0 W/m 28,3 km/h (4 Bft)
24.03.2013 19:38 1,1 C -0,4 C 46 % 1013,7 hPa 0,0 l/m 0 min 0 min 0,0 UV-I 0 W/m 28,3 km/h (4 Bft)
24.03.2013 19:40 1,1 C -0,4 C 47 % 1013,9 hPa 0,0 l/m 0 min 0 min 0,0 UV-I 0 W/m 18,0 km/h (3 Bft)
24.03.2013 19:42 1,1 C -0,4 C 47 % 1013,9 hPa 0,0 l/m 0 min 0 min 0,0 UV-I 0 W/m 12,9 km/h (3 Bft)
24.03.2013 19:44 1,1 C -0,4 C 47 % 1013,9 hPa 0,0 l/m 0 min 0 min 0,0 UV-I 0 W/m 23,2 km/h (4 Bft)
24.03.2013 19:46 1,1 C -0,4 C 47 % 1013,9 hPa 0,0 l/m 0 min 0 min 0,0 UV-I 0 W/m 23,2 km/h (4 Bft)
24.03.2013 19:48 1,1 C -0,4 C 47 % 1013,9 hPa 0,0 l/m 0 min 0 min 0,0 UV-I 0 W/m 28,3 km/h (4 Bft)
24.03.2013 19:50 1,0 C -0,4 C 48 % 1013,9 hPa 0,0 l/m 0 min 0 min 0,0 UV-I 0 W/m 12,9 km/h (3 Bft)
24.03.2013 19:52 1,0 C -0,4 C 48 % 1013,9 hPa 0,0 l/m 0 min 0 min 0,0 UV-I 0 W/m 7,7 km/h (2 Bft)
24.03.2013 19:54 1,0 C -0,4 C 48 % 1013,9 hPa 0,0 l/m 0 min 0 min 0,0 UV-I 0 W/m 10,3 km/h (2 Bft)
24.03.2013 19:56 0,9 C -0,4 C 48 % 1013,9 hPa 0,0 l/m 0 min 0 min 0,0 UV-I 0 W/m 18,0 km/h (3 Bft)
24.03.2013 19:58 0,9 C -0,4 C 48 % 1013,9 hPa 0,0 l/m 0 min 0 min 0,0 UV-I 0 W/m 18,0 km/h (3 Bft)
24.03.2013 20:00 0,9 C -0,4 C 48 % 1013,9 hPa 0,0 l/m 0 min 0 min 0,0 UV-I 0 W/m 15,4 km/h (3 Bft)
24.03.2013 20:02 0,9 C -0,4 C 49 % 1013,9 hPa 0,0 l/m 0 min 0 min 0,0 UV-I 0 W/m 18,0 km/h (3 Bft)
24.03.2013 20:04 0,9 C -0,4 C 49 % 1014,0 hPa 0,0 l/m 0 min 0 min 0,0 UV-I 0 W/m 7,7 km/h (2 Bft)
24.03.2013 20:06 0,9 C -0,4 C 49 % 1014,0 hPa 0,0 l/m 0 min 0 min 0,0 UV-I 0 W/m 10,3 km/h (2 Bft)
24.03.2013 20:08 0,9 C -0,4 C 49 % 1014,0 hPa 0,0 l/m 0 min 0 min 0,0 UV-I 0 W/m 10,3 km/h (2 Bft)
24.03.2013 20:10 0,9 C -0,4 C 48 % 1014,0 hPa 0,0 l/m 0 min 0 min 0,0 UV-I 0 W/m 12,9 km/h (3 Bft)
24.03.2013 20:12 0,9 C -0,4 C 49 % 1014,0 hPa 0,0 l/m 0 min 0 min 0,0 UV-I 0 W/m 7,7 km/h (2 Bft)
24.03.2013 20:14 0,8 C -0,4 C 49 % 1014,0 hPa 0,0 l/m 0 min 0 min 0,0 UV-I 0 W/m 20,6 km/h (4 Bft)
24.03.2013 20:16 0,8 C -0,4 C 48 % 1014,0 hPa 0,0 l/m 0 min 0 min 0,0 UV-I 0 W/m 28,3 km/h (4 Bft)
24.03.2013 20:18 0,9 C -0,4 C 47 % 1014,0 hPa 0,0 l/m 0 min 0 min 0,0 UV-I 0 W/m 28,3 km/h (4 Bft)
24.03.2013 20:20 0,8 C -0,4 C 47 % 1014,0 hPa 0,0 l/m 0 min 0 min 0,0 UV-I 0 W/m 28,3 km/h (4 Bft)
24.03.2013 20:22 0,8 C -0,4 C 47 % 1014,0 hPa 0,0 l/m 0 min 0 min 0,0 UV-I 0 W/m 33,5 km/h (5 Bft)
24.03.2013 20:24 0,8 C -0,4 C 47 % 1014,0 hPa 0,0 l/m 0 min 0 min 0,0 UV-I 0 W/m 28,3 km/h (4 Bft)
24.03.2013 20:26 0,8 C -0,4 C 47 % 1014,0 hPa 0,0 l/m 0 min 0 min 0,0 UV-I 0 W/m 28,3 km/h (4 Bft)
24.03.2013 20:28 0,9 C -0,4 C 47 % 1014,0 hPa 0,0 l/m 0 min 0 min 0,0 UV-I 0 W/m 23,2 km/h (4 Bft)
24.03.2013 20:30 0,8 C -0,4 C 47 % 1014,0 hPa 0,0 l/m 0 min 0 min 0,0 UV-I 0 W/m 43,8 km/h (6 Bft)
24.03.2013 20:32 0,9 C -0,4 C 46 % 1014,0 hPa 0,0 l/m 0 min 0 min 0,0 UV-I 0 W/m 20,6 km/h (4 Bft)
24.03.2013 20:34 0,8 C -0,4 C 47 % 1014,0 hPa 0,0 l/m 0 min 0 min 0,0 UV-I 0 W/m 20,6 km/h (4 Bft)
24.03.2013 20:36 0,8 C -0,4 C 47 % 1014,0 hPa 0,0 l/m 0 min 0 min 0,0 UV-I 0 W/m 25,7 km/h (4 Bft)
24.03.2013 20:38 0,8 C -0,4 C 48 % 1014,1 hPa 0,0 l/m 0 min 0 min 0,0 UV-I 0 W/m 7,7 km/h (2 Bft)
24.03.2013 20:40 0,8 C -0,4 C 48 % 1014,1 hPa 0,0 l/m 0 min 0 min 0,0 UV-I 0 W/m 10,3 km/h (2 Bft)
24.03.2013 20:42 0,8 C -0,4 C 48 % 1014,2 hPa 0,0 l/m 0 min 0 min 0,0 UV-I 0 W/m 15,4 km/h (3 Bft)
24.03.2013 20:44 0,8 C -0,4 C 48 % 1014,3 hPa 0,0 l/m 0 min 0 min 0,0 UV-I 0 W/m 18,0 km/h (3 Bft)
24.03.2013 20:46 0,8 C -0,4 C 49 % 1014,1 hPa 0,0 l/m 0 min 0 min 0,0 UV-I 0 W/m 7,7 km/h (2 Bft)
24.03.2013 20:48 0,8 C -0,4 C 48 % 1014,2 hPa 0,0 l/m 0 min 0 min 0,0 UV-I 0 W/m 2,6 km/h (1 Bft)
24.03.2013 20:50 0,8 C -0,4 C 49 % 1014,2 hPa 0,0 l/m 0 min 0 min 0,0 UV-I 0 W/m 10,3 km/h (2 Bft)
24.03.2013 20:52 0,8 C -0,4 C 49 % 1014,3 hPa 0,0 l/m 0 min 0 min 0,0 UV-I 0 W/m 25,7 km/h (4 Bft)
24.03.2013 20:54 0,8 C -0,4 C 49 % 1014,3 hPa 0,0 l/m 0 min 0 min 0,0 UV-I 0 W/m 12,9 km/h (3 Bft)
24.03.2013 20:56 0,7 C -0,4 C 48 % 1014,2 hPa 0,0 l/m 0 min 0 min 0,0 UV-I 0 W/m 25,7 km/h (4 Bft)
24.03.2013 20:58 0,7 C -0,4 C 48 % 1014,2 hPa 0,0 l/m 0 min 0 min 0,0 UV-I 0 W/m 23,2 km/h (4 Bft)
24.03.2013 21:00 0,7 C -0,4 C 48 % 1014,3 hPa 0,0 l/m 0 min 0 min 0,0 UV-I 0 W/m 20,6 km/h (4 Bft)
24.03.2013 21:02 0,7 C -0,4 C 49 % 1014,3 hPa 0,0 l/m 0 min 0 min 0,0 UV-I 0 W/m 30,9 km/h (5 Bft)
24.03.2013 21:04 0,7 C -0,4 C 48 % 1014,3 hPa 0,0 l/m 0 min 0 min 0,0 UV-I 0 W/m 28,3 km/h (4 Bft)
24.03.2013 21:06 0,7 C -0,4 C 48 % 1014,3 hPa 0,0 l/m 0 min 0 min 0,0 UV-I 0 W/m 15,4 km/h (3 Bft)
24.03.2013 21:08 0,7 C -0,4 C 49 % 1014,3 hPa 0,0 l/m 0 min 0 min 0,0 UV-I 0 W/m 18,0 km/h (3 Bft)
24.03.2013 21:10 0,6 C -0,4 C 49 % 1014,4 hPa 0,0 l/m 0 min 0 min 0,0 UV-I 0 W/m 23,2 km/h (4 Bft)
24.03.2013 21:12 0,6 C -0,4 C 49 % 1014,3 hPa 0,0 l/m 0 min 0 min 0,0 UV-I 0 W/m 20,6 km/h (4 Bft)
24.03.2013 21:14 0,6 C -0,4 C 49 % 1014,4 hPa 0,0 l/m 0 min 0 min 0,0 UV-I 0 W/m 23,2 km/h (4 Bft)
24.03.2013 21:16 0,6 C -0,4 C 50 % 1014,4 hPa 0,0 l/m 0 min 0 min 0,0 UV-I 0 W/m 28,3 km/h (4 Bft)
24.03.2013 21:18 0,6 C -0,4 C 50 % 1014,4 hPa 0,0 l/m 0 min 0 min 0,0 UV-I 0 W/m 18,0 km/h (3 Bft)
24.03.2013 21:20 0,6 C -0,4 C 50 % 1014,4 hPa 0,0 l/m 0 min 0 min 0,0 UV-I 0 W/m 12,9 km/h (3 Bft)
24.03.2013 21:22 0,6 C -0,4 C 50 % 1014,4 hPa 0,0 l/m 0 min 0 min 0,0 UV-I 0 W/m 20,6 km/h (4 Bft)
24.03.2013 21:24 0,5 C -0,4 C 50 % 1014,3 hPa 0,0 l/m 0 min 0 min 0,0 UV-I 0 W/m 18,0 km/h (3 Bft)
24.03.2013 21:26 0,5 C -0,4 C 50 % 1014,3 hPa 0,0 l/m 0 min 0 min 0,0 UV-I 0 W/m 18,0 km/h (3 Bft)
24.03.2013 21:28 0,5 C -1,0 C 50 % 1014,3 hPa 0,0 l/m 0 min 0 min 0,0 UV-I 0 W/m 7,7 km/h (2 Bft)
24.03.2013 21:30 0,4 C -1,0 C 50 % 1014,4 hPa 0,0 l/m 0 min 0 min 0,0 UV-I 0 W/m 7,7 km/h (2 Bft)
24.03.2013 21:32 0,4 C -1,0 C 50 % 1014,3 hPa 0,0 l/m 0 min 0 min 0,0 UV-I 0 W/m 12,9 km/h (3 Bft)
24.03.2013 21:34 0,4 C -1,0 C 50 % 1014,4 hPa 0,0 l/m 0 min 0 min 0,0 UV-I 0 W/m 18,0 km/h (3 Bft)
24.03.2013 21:36 0,4 C -1,0 C 50 % 1014,4 hPa 0,0 l/m 0 min 0 min 0,0 UV-I 0 W/m 30,9 km/h (5 Bft)
24.03.2013 21:38 0,4 C -1,0 C 50 % 1014,4 hPa 0,0 l/m 0 min 0 min 0,0 UV-I 0 W/m 20,6 km/h (4 Bft)
24.03.2013 21:40 0,4 C -1,0 C 50 % 1014,3 hPa 0,0 l/m 0 min 0 min 0,0 UV-I 0 W/m 12,9 km/h (3 Bft)
24.03.2013 21:42 0,3 C -1,0 C 50 % 1014,3 hPa 0,0 l/m 0 min 0 min 0,0 UV-I 0 W/m 12,9 km/h (3 Bft)
24.03.2013 21:44 0,3 C -1,0 C 50 % 1014,3 hPa 0,0 l/m 0 min 0 min 0,0 UV-I 0 W/m 20,6 km/h (4 Bft)
24.03.2013 21:46 0,3 C -1,0 C 50 % 1014,3 hPa 0,0 l/m 0 min 0 min 0,0 UV-I 0 W/m 15,4 km/h (3 Bft)
24.03.2013 21:48 0,3 C -1,0 C 50 % 1014,4 hPa 0,0 l/m 0 min 0 min 0,0 UV-I 0 W/m 20,6 km/h (4 Bft)
24.03.2013 21:50 0,3 C -1,0 C 50 % 1014,4 hPa 0,0 l/m 0 min 0 min 0,0 UV-I 0 W/m 20,6 km/h (4 Bft)
24.03.2013 21:52 0,3 C -1,0 C 50 % 1014,4 hPa 0,0 l/m 0 min 0 min 0,0 UV-I 0 W/m 23,2 km/h (4 Bft)
24.03.2013 21:54 0,3 C -1,0 C 50 % 1014,4 hPa 0,0 l/m 0 min 0 min 0,0 UV-I 0 W/m 23,2 km/h (4 Bft)
24.03.2013 21:56 0,2 C -1,0 C 50 % 1014,4 hPa 0,0 l/m 0 min 0 min 0,0 UV-I 0 W/m 28,3 km/h (4 Bft)
24.03.2013 21:58 0,2 C -1,0 C 50 % 1014,4 hPa 0,0 l/m 0 min 0 min 0,0 UV-I 0 W/m 25,7 km/h (4 Bft)
24.03.2013 22:00 0,2 C -1,0 C 50 % 1014,4 hPa 0,0 l/m 0 min 0 min 0,0 UV-I 0 W/m 23,2 km/h (4 Bft)
24.03.2013 22:02 0,2 C -1,0 C 50 % 1014,4 hPa 0,0 l/m 0 min 0 min 0,0 UV-I 0 W/m 30,9 km/h (5 Bft)
24.03.2013 22:04 0,2 C -1,0 C 50 % 1014,4 hPa 0,0 l/m 0 min 0 min 0,0 UV-I 0 W/m 30,9 km/h (5 Bft)
24.03.2013 22:06 0,2 C -1,0 C 50 % 1014,5 hPa 0,0 l/m 0 min 0 min 0,0 UV-I 0 W/m 20,6 km/h (4 Bft)
24.03.2013 22:08 0,2 C -1,0 C 50 % 1014,4 hPa 0,0 l/m 0 min 0 min 0,0 UV-I 0 W/m 15,4 km/h (3 Bft)
24.03.2013 22:10 0,2 C -1,0 C 50 % 1014,4 hPa 0,0 l/m 0 min 0 min 0,0 UV-I 0 W/m 18,0 km/h (3 Bft)
24.03.2013 22:12 0,1 C -1,0 C 50 % 1014,3 hPa 0,0 l/m 0 min 0 min 0,0 UV-I 0 W/m 36,0 km/h (5 Bft)
24.03.2013 22:14 0,1 C -1,0 C 50 % 1014,4 hPa 0,0 l/m 0 min 0 min 0,0 UV-I 0 W/m 15,4 km/h (3 Bft)
24.03.2013 22:16 0,1 C -1,0 C 50 % 1014,5 hPa 0,0 l/m 0 min 0 min 0,0 UV-I 0 W/m 18,0 km/h (3 Bft)
24.03.2013 22:18 0,1 C -1,0 C 51 % 1014,5 hPa 0,0 l/m 0 min 0 min 0,0 UV-I 0 W/m 25,7 km/h (4 Bft)
24.03.2013 22:20 0,1 C -1,0 C 51 % 1014,5 hPa 0,0 l/m 0 min 0 min 0,0 UV-I 0 W/m 25,7 km/h (4 Bft)
24.03.2013 22:22 0,1 C -1,0 C 51 % 1014,6 hPa 0,0 l/m 0 min 0 min 0,0 UV-I 0 W/m 18,0 km/h (3 Bft)
24.03.2013 22:24 0,1 C -1,0 C 51 % 1014,5 hPa 0,0 l/m 0 min 0 min 0,0 UV-I 0 W/m 25,7 km/h (4 Bft)
24.03.2013 22:26 0,1 C -1,0 C 51 % 1014,6 hPa 0,0 l/m 0 min 0 min 0,0 UV-I 0 W/m 18,0 km/h (3 Bft)
24.03.2013 22:28 0,1 C -1,0 C 51 % 1014,6 hPa 0,0 l/m 0 min 0 min 0,0 UV-I 0 W/m 20,6 km/h (4 Bft)
24.03.2013 22:30 0,0 C -1,0 C 51 % 1014,6 hPa 0,0 l/m 0 min 0 min 0,0 UV-I 0 W/m 20,6 km/h (4 Bft)
24.03.2013 22:32 0,0 C -1,0 C 51 % 1014,6 hPa 0,0 l/m 0 min 0 min 0,0 UV-I 0 W/m 10,3 km/h (2 Bft)
24.03.2013 22:34 0,0 C -1,0 C 51 % 1014,7 hPa 0,0 l/m 0 min 0 min 0,0 UV-I 0 W/m 7,7 km/h (2 Bft)
24.03.2013 22:36 0,0 C -1,0 C 51 % 1014,6 hPa 0,0 l/m 0 min 0 min 0,0 UV-I 0 W/m 20,6 km/h (4 Bft)
24.03.2013 22:38 0,0 C -1,0 C 52 % 1014,5 hPa 0,0 l/m 0 min 0 min 0,0 UV-I 0 W/m 25,7 km/h (4 Bft)
24.03.2013 22:40 0,0 C -1,0 C 51 % 1014,6 hPa 0,0 l/m 0 min 0 min 0,0 UV-I 0 W/m 36,0 km/h (5 Bft)
24.03.2013 22:42 -0,1 C -1,0 C 52 % 1014,6 hPa 0,0 l/m 0 min 0 min 0,0 UV-I 0 W/m 0,0 km/h (0 Bft)
24.03.2013 22:44 -0,1 C -1,0 C 52 % 1014,7 hPa 0,0 l/m 0 min 0 min 0,0 UV-I 0 W/m 15,4 km/h (3 Bft)
24.03.2013 22:46 -0,1 C -1,0 C 52 % 1014,7 hPa 0,0 l/m 0 min 0 min 0,0 UV-I 0 W/m 5,1 km/h (1 Bft)
24.03.2013 22:48 -0,1 C -1,0 C 52 % 1014,6 hPa 0,0 l/m 0 min 0 min 0,0 UV-I 0 W/m 18,0 km/h (3 Bft)
24.03.2013 22:50 -0,1 C -1,0 C 52 % 1014,6 hPa 0,0 l/m 0 min 0 min 0,0 UV-I 0 W/m 15,4 km/h (3 Bft)
24.03.2013 22:52 -0,1 C -1,0 C 52 % 1014,6 hPa 0,0 l/m 0 min 0 min 0,0 UV-I 0 W/m 15,4 km/h (3 Bft)
24.03.2013 22:54 -0,1 C -1,0 C 52 % 1014,5 hPa 0,0 l/m 0 min 0 min 0,0 UV-I 0 W/m 18,0 km/h (3 Bft)
24.03.2013 22:56 -0,1 C -1,0 C 52 % 1014,5 hPa 0,0 l/m 0 min 0 min 0,0 UV-I 0 W/m 25,7 km/h (4 Bft)
24.03.2013 22:58 -0,1 C -1,0 C 52 % 1014,5 hPa 0,0 l/m 0 min 0 min 0,0 UV-I 0 W/m 12,9 km/h (3 Bft)
24.03.2013 23:00 -0,1 C -1,0 C 52 % 1014,6 hPa 0,0 l/m 0 min 0 min 0,0 UV-I 0 W/m 12,9 km/h (3 Bft)
24.03.2013 23:02 -0,1 C -1,0 C 53 % 1014,5 hPa 0,0 l/m 0 min 0 min 0,0 UV-I 0 W/m 15,4 km/h (3 Bft)
24.03.2013 23:04 -0,2 C -1,0 C 52 % 1014,6 hPa 0,0 l/m 0 min 0 min 0,0 UV-I 0 W/m 10,3 km/h (2 Bft)
24.03.2013 23:06 -0,2 C -1,0 C 52 % 1014,5 hPa 0,0 l/m 0 min 0 min 0,0 UV-I 0 W/m 20,6 km/h (4 Bft)
24.03.2013 23:08 -0,2 C -1,6 C 53 % 1014,5 hPa 0,0 l/m 0 min 0 min 0,0 UV-I 0 W/m 12,9 km/h (3 Bft)
24.03.2013 23:10 -0,2 C -1,6 C 53 % 1014,5 hPa 0,0 l/m 0 min 0 min 0,0 UV-I 0 W/m 23,2 km/h (4 Bft)
24.03.2013 23:12 -0,2 C -1,6 C 53 % 1014,5 hPa 0,0 l/m 0 min 0 min 0,0 UV-I 0 W/m 5,1 km/h (1 Bft)
24.03.2013 23:14 -0,2 C -1,6 C 53 % 1014,5 hPa 0,0 l/m 0 min 0 min 0,0 UV-I 0 W/m 10,3 km/h (2 Bft)
24.03.2013 23:16 -0,2 C -1,6 C 53 % 1014,6 hPa 0,0 l/m 0 min 0 min 0,0 UV-I 0 W/m 7,7 km/h (2 Bft)
24.03.2013 23:18 -0,2 C -1,6 C 53 % 1014,6 hPa 0,0 l/m 0 min 0 min 0,0 UV-I 0 W/m 23,2 km/h (4 Bft)
24.03.2013 23:20 -0,3 C -1,6 C 53 % 1014,6 hPa 0,0 l/m 0 min 0 min 0,0 UV-I 0 W/m 18,0 km/h (3 Bft)
24.03.2013 23:22 -0,3 C -1,6 C 54 % 1014,6 hPa 0,0 l/m 0 min 0 min 0,0 UV-I 0 W/m 5,1 km/h (1 Bft)
24.03.2013 23:24 -0,3 C -1,6 C 54 % 1014,6 hPa 0,0 l/m 0 min 0 min 0,0 UV-I 0 W/m 0,0 km/h (0 Bft)
24.03.2013 23:26 -0,3 C -1,6 C 54 % 1014,6 hPa 0,0 l/m 0 min 0 min 0,0 UV-I 0 W/m 12,9 km/h (3 Bft)
24.03.2013 23:28 -0,3 C -1,6 C 54 % 1014,6 hPa 0,0 l/m 0 min 0 min 0,0 UV-I 0 W/m 12,9 km/h (3 Bft)
24.03.2013 23:30 -0,3 C -1,6 C 54 % 1014,6 hPa 0,0 l/m 0 min 0 min 0,0 UV-I 0 W/m 12,9 km/h (3 Bft)
24.03.2013 23:32 -0,3 C -1,6 C 54 % 1014,7 hPa 0,0 l/m 0 min 0 min 0,0 UV-I 0 W/m 15,4 km/h (3 Bft)
24.03.2013 23:34 -0,4 C -1,6 C 54 % 1014,7 hPa 0,0 l/m 0 min 0 min 0,0 UV-I 0 W/m 7,7 km/h (2 Bft)
24.03.2013 23:36 -0,4 C -1,6 C 54 % 1014,6 hPa 0,0 l/m 0 min 0 min 0,0 UV-I 0 W/m 20,6 km/h (4 Bft)
24.03.2013 23:38 -0,4 C -1,6 C 54 % 1014,6 hPa 0,0 l/m 0 min 0 min 0,0 UV-I 0 W/m 12,9 km/h (3 Bft)
24.03.2013 23:40 -0,4 C -1,6 C 54 % 1014,6 hPa 0,0 l/m 0 min 0 min 0,0 UV-I 0 W/m 28,3 km/h (4 Bft)
24.03.2013 23:42 -0,4 C -1,6 C 54 % 1014,6 hPa 0,0 l/m 0 min 0 min 0,0 UV-I 0 W/m 15,4 km/h (3 Bft)
24.03.2013 23:44 -0,4 C -1,6 C 54 % 1014,6 hPa 0,0 l/m 0 min 0 min 0,0 UV-I 0 W/m 18,0 km/h (3 Bft)
24.03.2013 23:46 -0,4 C -1,6 C 54 % 1014,6 hPa 0,0 l/m 0 min 0 min 0,0 UV-I 0 W/m 15,4 km/h (3 Bft)
24.03.2013 23:48 -0,4 C -1,6 C 54 % 1014,7 hPa 0,0 l/m 0 min 0 min 0,0 UV-I 0 W/m 7,7 km/h (2 Bft)
24.03.2013 23:50 -0,4 C -1,6 C 54 % 1014,6 hPa 0,0 l/m 0 min 0 min 0,0 UV-I 0 W/m 10,3 km/h (2 Bft)
24.03.2013 23:52 -0,5 C -1,6 C 54 % 1014,6 hPa 0,0 l/m 0 min 0 min 0,0 UV-I 0 W/m 18,0 km/h (3 Bft)
24.03.2013 23:54 -0,5 C -1,6 C 54 % 1014,6 hPa 0,0 l/m 0 min 0 min 0,0 UV-I 0 W/m 18,0 km/h (3 Bft)
24.03.2013 23:56 -0,5 C -1,6 C 55 % 1014,6 hPa 0,0 l/m 0 min 0 min 0,0 UV-I 0 W/m 10,3 km/h (2 Bft)
24.03.2013 23:58 -0,5 C -1,6 C 55 % 1014,6 hPa 0,0 l/m 0 min 0 min 0,0 UV-I 0 W/m 20,6 km/h (4 Bft)
_ Min-Zeit 06:40 04:56 15:54 16:00 - - - - - 02:46
Minimum _ -3,7 C -4,3 C 40 % 1012,3 hPa - - - - - 0,0 km/h (0 Bft)
_ Max-Zeit 13:36 13:28 00:00 00:32 00:00 12:04 00:00 13:20 13:16 17:26
Maximum _ 3,7 C 4,6 C 71 % 1015,2 hPa 0,0 l/m 2 min 0 min 1,4 UV-I 534 W/m 43,8 km/h
O-SO (6 Bft)
Durchschnitt _ -0,4 C -0,9 C 54 % 1014,0 hPa #0,0 l/m #1:12 h #0 min. 0,8 UV-I 169 W/m 15,6 km/h (3 Bft)
© 2013 W. Hausmann